Observation data for Odell on 02/11/2018      Previous  Date  Next       Current Mesonet Observations  Soil Data  Daily Summary Page  Observations in Plain Language
KOD1 110600Z 35014KT M06/M11 A3011 RMK A01 T10581108  RH  068%=      5-min Rain = 0
KOD1 110601Z 35015KT M06/M11 A3011 RMK A01 T10581108  RH  068%=      5-min Rain = 0
KOD1 110602Z 35013KT M06/M11 A3011 RMK A01 T10581108  RH  068%=      5-min Rain = 0
KOD1 110603Z 35012KT M06/M11 A3011 RMK A01 T10581108  RH  068%=      5-min Rain = 0
KOD1 110604Z 36010KT M06/M11 A3011 RMK A01 T10581108  RH  068%=      5-min Rain = 0
KOD1 110605Z 36011KT M06/M11 A3011 RMK A01 T10581108  RH  068%=      5-min Rain = 0
KOD1 110606Z 35011KT M06/M11 A3011 RMK A01 T10581108  RH  068%=      5-min Rain = 0
KOD1 110607Z 35012KT M06/M11 A3011 RMK A01 T10581108  RH  068%=      5-min Rain = 0
KOD1 110608Z 35012KT M06/M11 A3011 RMK A01 T10581108  RH  068%=      5-min Rain = 0
KOD1 110609Z 34012KT M06/M11 A3011 RMK A01 T10581108  RH  068%=      5-min Rain = 0
KOD1 110610Z 34012KT M06/M11 A3011 RMK A01 T10581108  RH  067%=      5-min Rain = 0
KOD1 110611Z 35011KT M06/M11 A3011 RMK A01 T10581108  RH  068%=      5-min Rain = 0
KOD1 110612Z 35012KT M06/M11 A3011 RMK A01 T10581108  RH  068%=      5-min Rain = 0
KOD1 110613Z 35013KT M06/M11 A3011 RMK A01 T10581108  RH  068%=      5-min Rain = 0
KOD1 110614Z 35011KT M06/M11 A3012 RMK A01 T10581108  RH  068%=      5-min Rain = 0
KOD1 110615Z 35012KT M06/M11 A3011 RMK A01 T10581109  RH  068%=      5-min Rain = 0
KOD1 110616Z 35013KT M06/M11 A3011 RMK A01 T10591109  RH  068%=      5-min Rain = 0
KOD1 110617Z 35013KT M06/M11 A3011 RMK A01 T10591109  RH  068%=      5-min Rain = 0
KOD1 110618Z 34013KT M06/M11 A3011 RMK A01 T10591109  RH  068%=      5-min Rain = 0
KOD1 110619Z 35013KT M06/M11 A3011 RMK A01 T10591109  RH  068%=      5-min Rain = 0
KOD1 110620Z 35014KT M06/M11 A3011 RMK A01 T10591109  RH  068%=      5-min Rain = 0
KOD1 110621Z 36014KT M06/M11 A3011 RMK A01 T10591109  RH  068%=      5-min Rain = 0
KOD1 110622Z 36012KT M06/M11 A3011 RMK A01 T10591109  RH  068%=      5-min Rain = 0
KOD1 110623Z 35012KT M06/M11 A3011 RMK A01 T10591109  RH  068%=      5-min Rain = 0
KOD1 110624Z 35012KT M06/M11 A3011 RMK A01 T10591108  RH  068%=      5-min Rain = 0
KOD1 110625Z 35012KT M06/M11 A3011 RMK A01 T10591108  RH  068%=      5-min Rain = 0
KOD1 110626Z 35012KT M06/M11 A3011 RMK A01 T10591108  RH  068%=      5-min Rain = 0
KOD1 110627Z 35013KT M06/M11 A3011 RMK A01 T10591108  RH  068%=      5-min Rain = 0
KOD1 110628Z 35011KT M06/M11 A3011 RMK A01 T10591108  RH  068%=      5-min Rain = 0
KOD1 110629Z 35011KT M06/M11 A3011 RMK A01 T10591108  RH  068%=      5-min Rain = 0
KOD1 110630Z 34010KT M06/M11 A3011 RMK A01 T10591108  RH  068%=      5-min Rain = 0
KOD1 110631Z 34009KT M06/M11 A3011 RMK A01 T10591108  RH  068%=      5-min Rain = 0
KOD1 110632Z 34009KT M06/M11 A3011 RMK A01 T10591108  RH  068%=      5-min Rain = 0
KOD1 110633Z 34012KT M06/M11 A3011 RMK A01 T10591108  RH  069%=      5-min Rain = 0
KOD1 110634Z 35011KT M06/M11 A3011 RMK A01 T10591108  RH  069%=      5-min Rain = 0
KOD1 110635Z 34014KT M06/M11 A3011 RMK A01 T10591107  RH  069%=      5-min Rain = 0
KOD1 110636Z 35015KT M06/M11 A3011 RMK A01 T10591107  RH  069%=      5-min Rain = 0
KOD1 110637Z 35014KT M06/M11 A3011 RMK A01 T10591107  RH  069%=      5-min Rain = 0
KOD1 110638Z 35014KT M06/M11 A3011 RMK A01 T10591106  RH  069%=      5-min Rain = 0
KOD1 110639Z 35015KT M06/M11 A3011 RMK A01 T10591106  RH  069%=      5-min Rain = 0
KOD1 110640Z 35013KT M06/M11 A3011 RMK A01 T10591106  RH  069%=      5-min Rain = 0
KOD1 110641Z 35011KT M06/M11 A3011 RMK A01 T10591106  RH  069%=      5-min Rain = 0
KOD1 110642Z 35015KT M06/M11 A3011 RMK A01 T10591106  RH  069%=      5-min Rain = 0
KOD1 110643Z 35014KT M06/M11 A3011 RMK A01 T10591106  RH  069%=      5-min Rain = 0
KOD1 110644Z 35013KT M06/M11 A3011 RMK A01 T10591106  RH  069%=      5-min Rain = 0
KOD1 110645Z 35012KT M06/M11 A3011 RMK A01 T10591106  RH  069%=      5-min Rain = 0
KOD1 110646Z 35012KT M06/M11 A3011 RMK A01 T10591106  RH  069%=      5-min Rain = 0
KOD1 110647Z 35012KT M06/M11 A301 RMK A01 T10591106  RH  069%=      5-min Rain = 0
KOD1 110648Z 35012KT M06/M11 A301 RMK A01 T10591106  RH  069%=      5-min Rain = 0
KOD1 110649Z 35012KT M06/M11 A301 RMK A01 T10591106  RH  069%=      5-min Rain = 0
KOD1 110650Z 34013KT M06/M11 A3011 RMK A01 T10591106  RH  069%=      5-min Rain = 0
KOD1 110651Z 34014G19KT M06/M11 A3011 RMK A01 T10591106  RH  069%=      5-min Rain = 0
KOD1 110652Z 34013KT M06/M11 A3011 RMK A01 T10591106  RH  069%=      5-min Rain = 0
KOD1 110653Z 34012KT M06/M11 A3011 RMK A01 T10591106  RH  069%=      5-min Rain = 0
KOD1 110654Z 34013KT M06/M11 A3011 RMK A01 T10591106  RH  069%=      5-min Rain = 0
KOD1 110655Z 34012G17KT M06/M11 A3011 RMK A01 T10591106  RH  069%=      5-min Rain = 0
KOD1 110656Z 34011KT M06/M11 A3011 RMK A01 T10591106  RH  069%=      5-min Rain = 0
KOD1 110657Z 34012KT M06/M11 A3011 RMK A01 T10591107  RH  069%=      5-min Rain = 0
KOD1 110658Z 35012KT M06/M11 A3011 RMK A01 T10591107  RH  069%=      5-min Rain = 0
KOD1 110659Z 35011KT M06/M11 A3011 RMK A01 T10591107  RH  069%=      5-min Rain = 0
KOD1 110700Z 35013KT M06/M11 A3011 RMK A01 T10591107  RH  069%=      5-min Rain = 0
KOD1 110701Z 34014KT M06/M11 A3011 RMK A01 T10591107  RH  069%=      5-min Rain = 0
KOD1 110702Z 34012KT M06/M11 A3011 RMK A01 T10591107  RH  069%=      5-min Rain = 0
KOD1 110703Z 35013KT M06/M11 A3011 RMK A01 T10591107  RH  069%=      5-min Rain = 0
KOD1 110704Z 34012KT M06/M11 A3011 RMK A01 T10591106  RH  069%=      5-min Rain = 0
KOD1 110705Z 34012KT M06/M11 A3011 RMK A01 T10591106  RH  069%=      5-min Rain = 0
KOD1 110706Z 35013KT M06/M11 A3011 RMK A01 T10591106  RH  069%=      5-min Rain = 0
KOD1 110707Z 34013KT M06/M11 A3011 RMK A01 T10591106  RH  069%=      5-min Rain = 0
KOD1 110708Z 34013KT M06/M11 A3011 RMK A01 T10591106  RH  069%=      5-min Rain = 0
KOD1 110709Z 34013KT M06/M11 A3011 RMK A01 T10591106  RH  069%=      5-min Rain = 0
KOD1 110710Z 34012KT M06/M11 A3011 RMK A01 T10591106  RH  069%=      5-min Rain = 0
KOD1 110711Z 34011KT M06/M11 A3011 RMK A01 T10581106  RH  069%=      5-min Rain = 0
KOD1 110712Z 34011KT M06/M11 A3011 RMK A01 T10581106  RH  069%=      5-min Rain = 0
KOD1 110713Z 34011KT M06/M11 A3012 RMK A01 T10581106  RH  069%=      5-min Rain = 0
KOD1 110714Z 34011KT M06/M11 A3012 RMK A01 T10581106  RH  069%=      5-min Rain = 0
KOD1 110715Z 34010KT M06/M11 A3012 RMK A01 T10581106  RH  069%=      5-min Rain = 0
KOD1 110716Z 34014KT M06/M11 A3012 RMK A01 T10581106  RH  069%=      5-min Rain = 0
KOD1 110717Z 34013KT M06/M11 A3012 RMK A01 T10581106  RH  069%=      5-min Rain = 0
KOD1 110718Z 34013KT M06/M11 A3012 RMK A01 T10581106  RH  069%=      5-min Rain = 0
KOD1 110719Z 35013KT M06/M11 A3012 RMK A01 T10581107  RH  069%=      5-min Rain = 0
KOD1 110720Z 35012KT M06/M11 A3012 RMK A01 T10581106  RH  069%=      5-min Rain = 0
KOD1 110721Z 34009KT M06/M11 A3012 RMK A01 T10581107  RH  069%=      5-min Rain = 0
KOD1 110722Z 34010KT M06/M11 A3012 RMK A01 T10581107  RH  069%=      5-min Rain = 0
KOD1 110723Z 34012KT M06/M11 A3012 RMK A01 T10581107  RH  069%=      5-min Rain = 0
KOD1 110724Z 34013KT M06/M11 A3012 RMK A01 T10581107  RH  069%=      5-min Rain = 0
KOD1 110725Z 34011KT M06/M11 A3012 RMK A01 T10581107  RH  069%=      5-min Rain = 0
KOD1 110726Z 35013KT M06/M11 A3012 RMK A01 T10581107  RH  069%=      5-min Rain = 0
KOD1 110727Z 33010KT M06/M11 A3012 RMK A01 T10591107  RH  069%=      5-min Rain = 0
KOD1 110728Z 34011KT M06/M11 A3012 RMK A01 T10591107  RH  069%=      5-min Rain = 0
KOD1 110729Z 34012KT M06/M11 A3012 RMK A01 T10591107  RH  069%=      5-min Rain = 0
KOD1 110730Z 34012KT M06/M11 A3012 RMK A01 T10591107  RH  069%=      5-min Rain = 0
KOD1 110731Z 34013KT M06/M11 A3012 RMK A01 T10591107  RH  069%=      5-min Rain = 0
KOD1 110732Z 34013KT M06/M11 A3012 RMK A01 T10591107  RH  069%=      5-min Rain = 0
KOD1 110733Z 34010KT M06/M11 A3012 RMK A01 T10591107  RH  069%=      5-min Rain = 0
KOD1 110734Z 35011KT M06/M11 A3012 RMK A01 T10591107  RH  069%=      5-min Rain = 0
KOD1 110735Z 34010KT M06/M11 A3012 RMK A01 T10591107  RH  069%=      5-min Rain = 0
KOD1 110736Z 34010KT M06/M11 A3012 RMK A01 T10591107  RH  069%=      5-min Rain = 0
KOD1 110737Z 34013KT M06/M11 A3012 RMK A01 T10591107  RH  069%=      5-min Rain = 0
KOD1 110738Z 34014KT M06/M11 A3012 RMK A01 T10591107  RH  069%=      5-min Rain = 0
KOD1 110739Z 34012KT M06/M11 A3012 RMK A01 T10591107  RH  069%=      5-min Rain = 0
KOD1 110740Z 34013KT M06/M11 A3012 RMK A01 T10591107  RH  069%=      5-min Rain = 0
KOD1 110741Z 34011KT M06/M11 A3012 RMK A01 T10591107  RH  069%=      5-min Rain = 0
KOD1 110742Z 34010KT M06/M11 A3012 RMK A01 T10591107  RH  068%=      5-min Rain = 0
KOD1 110743Z 34012KT M06/M11 A3012 RMK A01 T10581107  RH  068%=      5-min Rain = 0
KOD1 110744Z 35010KT M06/M11 A3012 RMK A01 T10581108  RH  068%=      5-min Rain = 0
KOD1 110745Z 35012KT M06/M11 A3012 RMK A01 T10581107  RH  068%=      5-min Rain = 0
KOD1 110746Z 35013KT M06/M11 A3012 RMK A01 T10581108  RH  068%=      5-min Rain = 0
KOD1 110747Z 35015KT M06/M11 A3012 RMK A01 T10591108  RH  068%=      5-min Rain = 0
KOD1 110748Z 34013KT M06/M11 A3012 RMK A01 T10591108  RH  068%=      5-min Rain = 0
KOD1 110749Z 35013KT M06/M11 A3012 RMK A01 T10591108  RH  068%=      5-min Rain = 0
KOD1 110750Z 35014G19KT M06/M11 A3012 RMK A01 T10591109  RH  068%=      5-min Rain = 0
KOD1 110751Z 35016KT M06/M11 A3012 RMK A01 T10591109  RH  068%=      5-min Rain = 0
KOD1 110752Z 34015KT M06/M11 A3012 RMK A01 T10591110  RH  068%=      5-min Rain = 0
KOD1 110753Z 34011KT M06/M11 A3012 RMK A01 T10591110  RH  068%=      5-min Rain = 0
KOD1 110754Z 35016KT M06/M11 A3012 RMK A01 T10591110  RH  067%=      5-min Rain = 0
KOD1 110755Z 35018KT M06/M11 A3012 RMK A01 T10591110  RH  067%=      5-min Rain = 0
KOD1 110756Z 35014KT M06/M11 A3012 RMK A01 T10601110  RH  068%=      5-min Rain = 0
KOD1 110757Z 34014KT M06/M11 A3012 RMK A01 T10601110  RH  068%=      5-min Rain = 0
KOD1 110758Z 35015KT M06/M11 A3012 RMK A01 T10601110  RH  068%=      5-min Rain = 0
KOD1 110759Z 34014KT M06/M11 A3012 RMK A01 T10601110  RH  068%=      5-min Rain = 0
KOD1 110800Z 35014KT M06/M11 A3012 RMK A01 T10601110  RH  068%=      5-min Rain = 0
KOD1 110801Z 35015KT M06/M11 A3012 RMK A01 T10601110  RH  068%=      5-min Rain = 0
KOD1 110802Z 35014KT M06/M11 A3012 RMK A01 T10601110  RH  068%=      5-min Rain = 0
KOD1 110803Z 35014KT M06/M11 A3012 RMK A01 T10601110  RH  068%=      5-min Rain = 0
KOD1 110804Z 34012KT M06/M11 A3012 RMK A01 T10601110  RH  068%=      5-min Rain = 0
KOD1 110805Z 34011KT M06/M11 A3012 RMK A01 T10611110  RH  068%=      5-min Rain = 0
KOD1 110806Z 35010KT M06/M11 A3012 RMK A01 T10611110  RH  068%=      5-min Rain = 0
KOD1 110807Z 35011KT M06/M11 A3012 RMK A01 T10611111  RH  068%=      5-min Rain = 0
KOD1 110808Z 34012KT M06/M11 A3012 RMK A01 T10611110  RH  068%=      5-min Rain = 0
KOD1 110809Z 34012KT M06/M11 A3012 RMK A01 T10611110  RH  068%=      5-min Rain = 0
KOD1 110810Z 35012KT M06/M11 A3012 RMK A01 T10611110  RH  068%=      5-min Rain = 0
KOD1 110811Z 35012KT M06/M11 A3012 RMK A01 T10611110  RH  068%=      5-min Rain = 0
KOD1 110812Z 34013KT M06/M11 A3012 RMK A01 T10611110  RH  068%=      5-min Rain = 0
KOD1 110813Z 35012KT M06/M11 A3012 RMK A01 T10611110  RH  068%=      5-min Rain = 0
KOD1 110814Z 35013KT M06/M11 A3012 RMK A01 T10611110  RH  068%=      5-min Rain = 0
KOD1 110815Z 35014KT M06/M11 A3012 RMK A01 T10611110  RH  069%=      5-min Rain = 0
KOD1 110816Z 35012KT M06/M11 A3012 RMK A01 T10611110  RH  069%=      5-min Rain = 0
KOD1 110817Z 35013KT M06/M11 A3012 RMK A01 T10611110  RH  069%=      5-min Rain = 0
KOD1 110818Z 35013KT M06/M11 A3012 RMK A01 T10611109  RH  069%=      5-min Rain = 0
KOD1 110819Z 35012KT M06/M11 A3012 RMK A01 T10611109  RH  069%=      5-min Rain = 0
KOD1 110820Z 36012KT M06/M11 A3012 RMK A01 T10601109  RH  068%=      5-min Rain = 0
KOD1 110821Z 35015KT M06/M11 A3013 RMK A01 T10601109  RH  068%=      5-min Rain = 0
KOD1 110822Z 35011KT M06/M11 A3013 RMK A01 T10601109  RH  068%=      5-min Rain = 0
KOD1 110823Z 35010KT M06/M11 A3012 RMK A01 T10591109  RH  068%=      5-min Rain = 0
KOD1 110824Z 34012KT M06/M11 A3013 RMK A01 T10591109  RH  068%=      5-min Rain = 0
KOD1 110825Z 35014KT M06/M11 A3013 RMK A01 T10591109  RH  068%=      5-min Rain = 0
KOD1 110826Z 34014KT M06/M11 A3013 RMK A01 T10591109  RH  068%=      5-min Rain = 0
KOD1 110827Z 35014KT M06/M11 A3013 RMK A01 T10591109  RH  068%=      5-min Rain = 0
KOD1 110828Z 35011KT M06/M11 A3013 RMK A01 T10591109  RH  068%=      5-min Rain = 0
KOD1 110829Z 35013KT M06/M11 A3013 RMK A01 T10591109  RH  068%=      5-min Rain = 0
KOD1 110830Z 34012KT M06/M11 A3013 RMK A01 T10591109  RH  067%=      5-min Rain = 0
KOD1 110831Z 35013G18KT M06/M11 A3013 RMK A01 T10591109  RH  067%=      5-min Rain = 0
KOD1 110832Z 34013KT M06/M11 A3013 RMK A01 T10591110  RH  067%=      5-min Rain = 0
KOD1 110833Z 34016KT M06/M11 A3012 RMK A01 T10591110  RH  067%=      5-min Rain = 0
KOD1 110834Z 35015KT M06/M11 A3012 RMK A01 T10591110  RH  067%=      5-min Rain = 0
KOD1 110835Z 35015KT M06/M11 A3012 RMK A01 T10591110  RH  067%=      5-min Rain = 0
KOD1 110836Z 35014KT M06/M11 A3012 RMK A01 T10591110  RH  067%=      5-min Rain = 0
KOD1 110837Z 35014KT M06/M11 A3012 RMK A01 T10591109  RH  067%=      5-min Rain = 0
KOD1 110838Z 34012KT M06/M11 A3012 RMK A01 T10581109  RH  067%=      5-min Rain = 0
KOD1 110839Z 34015KT M06/M11 A3012 RMK A01 T10581109  RH  067%=      5-min Rain = 0
KOD1 110840Z 34015KT M06/M11 A3012 RMK A01 T10581110  RH  067%=      5-min Rain = 0
KOD1 110841Z 34014KT M06/M11 A3012 RMK A01 T10581109  RH  067%=      5-min Rain = 0
KOD1 110842Z 34013KT M06/M11 A3012 RMK A01 T10581109  RH  067%=      5-min Rain = 0
KOD1 110843Z 34011KT M06/M11 A3012 RMK A01 T10581109  RH  067%=      5-min Rain = 0
KOD1 110844Z 34011KT M06/M11 A3012 RMK A01 T10581109  RH  067%=      5-min Rain = 0
KOD1 110845Z 35012KT M06/M11 A3012 RMK A01 T10571109  RH  067%=      5-min Rain = 0
KOD1 110846Z 35013KT M06/M11 A3012 RMK A01 T10571109  RH  067%=      5-min Rain = 0
KOD1 110847Z 34013KT M06/M11 A3012 RMK A01 T10571109  RH  067%=      5-min Rain = 0
KOD1 110848Z 34015KT M06/M11 A3012 RMK A01 T10571109  RH  067%=      5-min Rain = 0
KOD1 110849Z 35016KT M06/M11 A3012 RMK A01 T10571110  RH  067%=      5-min Rain = 0
KOD1 110850Z 34014KT M06/M11 A3013 RMK A01 T10571109  RH  067%=      5-min Rain = 0
KOD1 110851Z 34012G17KT M06/M11 A3013 RMK A01 T10571109  RH  067%=      5-min Rain = 0
KOD1 110852Z 34011KT M06/M11 A3013 RMK A01 T10571109  RH  067%=      5-min Rain = 0
KOD1 110853Z 34016KT M06/M11 A3013 RMK A01 T10571110  RH  066%=      5-min Rain = 0
KOD1 110854Z 35015KT M06/M11 A3012 RMK A01 T10571110  RH  067%=      5-min Rain = 0
KOD1 110855Z 35016KT M06/M11 A3012 RMK A01 T10571110  RH  067%=      5-min Rain = 0
KOD1 110856Z 34013G18KT M06/M11 A3013 RMK A01 T10571110  RH  067%=      5-min Rain = 0
KOD1 110857Z 34012KT M06/M11 A3013 RMK A01 T10581110  RH  067%=      5-min Rain = 0
KOD1 110858Z 34011KT M06/M11 A3013 RMK A01 T10581110  RH  067%=      5-min Rain = 0
KOD1 110859Z 35013KT M06/M11 A3013 RMK A01 T10581110  RH  067%=      5-min Rain = 0
KOD1 110900Z 34012KT M06/M11 A3013 RMK A01 T10581110  RH  067%=      5-min Rain = 0
KOD1 110901Z 34013G18KT M06/M11 A3013 RMK A01 T10581110  RH  067%=      5-min Rain = 0
KOD1 110902Z 34013KT M06/M11 A3013 RMK A01 T10581110  RH  067%=      5-min Rain = 0
KOD1 110903Z 35014KT M06/M11 A3013 RMK A01 T10591110  RH  067%=      5-min Rain = 0
KOD1 110904Z 35018KT M06/M11 A3013 RMK A01 T10591110  RH  067%=      5-min Rain = 0
KOD1 110905Z 34011KT M06/M11 A3013 RMK A01 T10591110  RH  067%=      5-min Rain = 0
KOD1 110906Z 34015KT M06/M11 A3013 RMK A01 T10591110  RH  068%=      5-min Rain = 0
KOD1 110907Z 34013KT M06/M11 A3012 RMK A01 T10591110  RH  068%=      5-min Rain = 0
KOD1 110908Z 35013G18KT M06/M11 A3012 RMK A01 T10601110  RH  068%=      5-min Rain = 0
KOD1 110909Z 35015KT M06/M11 A3012 RMK A01 T10591110  RH  068%=      5-min Rain = 0
KOD1 110910Z 35014KT M06/M11 A3012 RMK A01 T10591109  RH  068%=      5-min Rain = 0
KOD1 110911Z 35015KT M06/M11 A3013 RMK A01 T10591109  RH  068%=      5-min Rain = 0
KOD1 110912Z 34013KT M06/M11 A3013 RMK A01 T10591109  RH  068%=      5-min Rain = 0
KOD1 110913Z 34012KT M06/M11 A3013 RMK A01 T10591109  RH  068%=      5-min Rain = 0
KOD1 110914Z 34013KT M06/M11 A3013 RMK A01 T10581109  RH  068%=      5-min Rain = 0
KOD1 110915Z 34015G20KT M06/M11 A3013 RMK A01 T10581109  RH  068%=      5-min Rain = 0
KOD1 110916Z 34015KT M06/M11 A3013 RMK A01 T10581108  RH  068%=      5-min Rain = 0
KOD1 110917Z 35014KT M06/M11 A3013 RMK A01 T10581108  RH  068%=      5-min Rain = 0
KOD1 110918Z 34013G19KT M06/M11 A3013 RMK A01 T10581108  RH  068%=      5-min Rain = 0
KOD1 110919Z 34017KT M06/M11 A3013 RMK A01 T10581108  RH  068%=      5-min Rain = 0
KOD1 110920Z 34015KT M06/M11 A3013 RMK A01 T10581108  RH  068%=      5-min Rain = 0
KOD1 110921Z 35016KT M06/M11 A3013 RMK A01 T10581108  RH  068%=      5-min Rain = 0
KOD1 110922Z 35014KT M06/M11 A3013 RMK A01 T10591108  RH  068%=      5-min Rain = 0
KOD1 110923Z 34012KT M06/M11 A3013 RMK A01 T10591108  RH  068%=      5-min Rain = 0
KOD1 110924Z 34014KT M06/M11 A3013 RMK A01 T10591108  RH  068%=      5-min Rain = 0
KOD1 110925Z 35016KT M06/M11 A3013 RMK A01 T10591108  RH  068%=      5-min Rain = 0
KOD1 110926Z 34014KT M06/M11 A3013 RMK A01 T10591108  RH  068%=      5-min Rain = 0
KOD1 110927Z 34015KT M06/M11 A3013 RMK A01 T10591108  RH  068%=      5-min Rain = 0
KOD1 110928Z 35018KT M06/M11 A3013 RMK A01 T10591108  RH  068%=      5-min Rain = 0
KOD1 110929Z 35015KT M06/M11 A3013 RMK A01 T10591108  RH  068%=      5-min Rain = 0
KOD1 110930Z 35012KT M06/M11 A3013 RMK A01 T10591108  RH  068%=      5-min Rain = 0
KOD1 110931Z 35014KT M06/M11 A3013 RMK A01 T10591108  RH  068%=      5-min Rain = 0
KOD1 110932Z 35012KT M06/M11 A3014 RMK A01 T10601108  RH  068%=      5-min Rain = 0
KOD1 110933Z 34016KT M06/M11 A3014 RMK A01 T10601109  RH  068%=      5-min Rain = 0
KOD1 110934Z 35014KT M06/M11 A3014 RMK A01 T10601109  RH  069%=      5-min Rain = 0
KOD1 110935Z 34014KT M06/M11 A3014 RMK A01 T10611109  RH  069%=      5-min Rain = 0
KOD1 110936Z 35014KT M06/M11 A3014 RMK A01 T10611109  RH  069%=      5-min Rain = 0
KOD1 110937Z 35014KT M06/M11 A3014 RMK A01 T10611109  RH  069%=      5-min Rain = 0
KOD1 110938Z 35014KT M06/M11 A3014 RMK A01 T10611109  RH  069%=      5-min Rain = 0
KOD1 110939Z 34013KT M06/M11 A3014 RMK A01 T10621109  RH  069%=      5-min Rain = 0
KOD1 110940Z 34012KT M06/M11 A3014 RMK A01 T10621109  RH  069%=      5-min Rain = 0
KOD1 110941Z 35011KT M06/M11 A3014 RMK A01 T10621108  RH  069%=      5-min Rain = 0
KOD1 110942Z 34010KT M06/M11 A3014 RMK A01 T10621108  RH  069%=      5-min Rain = 0
KOD1 110943Z 35011KT M06/M11 A3014 RMK A01 T10611108  RH  070%=      5-min Rain = 0
KOD1 110944Z 34012KT M06/M11 A3014 RMK A01 T10611108  RH  070%=      5-min Rain = 0
KOD1 110945Z 34013KT M06/M11 A3014 RMK A01 T10611108  RH  069%=      5-min Rain = 0
KOD1 110946Z 34014KT M06/M11 A3014 RMK A01 T10611108  RH  069%=      5-min Rain = 0
KOD1 110947Z 34013KT M06/M11 A3014 RMK A01 T10601108  RH  069%=      5-min Rain = 0
KOD1 110948Z 34012KT M06/M11 A3014 RMK A01 T10601108  RH  069%=      5-min Rain = 0
KOD1 110949Z 34013KT M06/M11 A3014 RMK A01 T10601108  RH  069%=      5-min Rain = 0
KOD1 110950Z 34013KT M06/M11 A3014 RMK A01 T10601108  RH  069%=      5-min Rain = 0
KOD1 110951Z 33015KT M06/M11 A3014 RMK A01 T10601108  RH  069%=      5-min Rain = 0
KOD1 110952Z 33013KT M06/M11 A3014 RMK A01 T10601108  RH  068%=      5-min Rain = 0
KOD1 110953Z 34012KT M06/M11 A3014 RMK A01 T10591108  RH  068%=      5-min Rain = 0
KOD1 110954Z 34011KT M06/M11 A3014 RMK A01 T10591108  RH  068%=      5-min Rain = 0
KOD1 110955Z 35013KT M06/M11 A3014 RMK A01 T10591108  RH  068%=      5-min Rain = 0
KOD1 110956Z 34013KT M06/M11 A3014 RMK A01 T10591108  RH  068%=      5-min Rain = 0
KOD1 110957Z 35016KT M06/M11 A3014 RMK A01 T10591109  RH  068%=      5-min Rain = 0
KOD1 110958Z 34016KT M06/M11 A3014 RMK A01 T10591109  RH  068%=      5-min Rain = 0
KOD1 110959Z 34015KT M06/M11 A3014 RMK A01 T10591109  RH  068%=      5-min Rain = 0
KOD1 111000Z 34015KT M06/M11 A3014 RMK A01 T10591109  RH  068%=      5-min Rain = 0
KOD1 111001Z 34013KT M06/M11 A3014 RMK A01 T10591109  RH  068%=      5-min Rain = 0
KOD1 111002Z 34013G19KT M06/M11 A3014 RMK A01 T10591109  RH  068%=      5-min Rain = 0
KOD1 111003Z 34014KT M06/M11 A3014 RMK A01 T10591109  RH  068%=      5-min Rain = 0
KOD1 111004Z 34014KT M06/M11 A3014 RMK A01 T10591109  RH  068%=      5-min Rain = 0
KOD1 111005Z 34015KT M06/M11 A3014 RMK A01 T10591109  RH  067%=      5-min Rain = 0
KOD1 111006Z 34014G19KT M06/M11 A3014 RMK A01 T10591109  RH  068%=      5-min Rain = 0
KOD1 111007Z 34014KT M06/M11 A3015 RMK A01 T10591109  RH  067%=      5-min Rain = 0
KOD1 111008Z 34015KT M06/M11 A3015 RMK A01 T10591109  RH  068%=      5-min Rain = 0
KOD1 111009Z 34016KT M06/M11 A3015 RMK A01 T10591109  RH  068%=      5-min Rain = 0
KOD1 111010Z 33014KT M06/M11 A3015 RMK A01 T10591110  RH  068%=      5-min Rain = 0
KOD1 111011Z 34015KT M06/M11 A3015 RMK A01 T10591110  RH  068%=      5-min Rain = 0
KOD1 111012Z 34015KT M06/M11 A3015 RMK A01 T10601110  RH  068%=      5-min Rain = 0
KOD1 111013Z 34013KT M06/M11 A3015 RMK A01 T10601110  RH  068%=      5-min Rain = 0
KOD1 111014Z 34015KT M06/M11 A3015 RMK A01 T10601110  RH  068%=      5-min Rain = 0
KOD1 111015Z 34014KT M06/M11 A3015 RMK A01 T10611111  RH  068%=      5-min Rain = 0
KOD1 111016Z 34015KT M06/M11 A3014 RMK A01 T10611111  RH  068%=      5-min Rain = 0
KOD1 111017Z 34015KT M06/M11 A3014 RMK A01 T10621111  RH  068%=      5-min Rain = 0
KOD1 111018Z 34013KT M06/M11 A3014 RMK A01 T10621111  RH  069%=      5-min Rain = 0
KOD1 111019Z 34013KT M06/M11 A3014 RMK A01 T10621111  RH  069%=      5-min Rain = 0
KOD1 111020Z 34011KT M06/M11 A3014 RMK A01 T10631111  RH  069%=      5-min Rain = 0
KOD1 111021Z 33012KT M06/M11 A3015 RMK A01 T10631110  RH  069%=      5-min Rain = 0
KOD1 111022Z 34011KT M06/M11 A3015 RMK A01 T10631110  RH  069%=      5-min Rain = 0
KOD1 111023Z 34008KT M06/M11 A3015 RMK A01 T10621110  RH  069%=      5-min Rain = 0
KOD1 111024Z 34010KT M06/M11 A3015 RMK A01 T10621110  RH  069%=      5-min Rain = 0
KOD1 111025Z 34009KT M06/M11 A3015 RMK A01 T10621110  RH  069%=      5-min Rain = 0
KOD1 111026Z 34013KT M06/M11 A3015 RMK A01 T10621110  RH  069%=      5-min Rain = 0
KOD1 111027Z 33014KT M06/M11 A3015 RMK A01 T10621110  RH  068%=      5-min Rain = 0
KOD1 111028Z 34014KT M06/M11 A3015 RMK A01 T10611110  RH  068%=      5-min Rain = 0
KOD1 111029Z 35011KT M06/M11 A3015 RMK A01 T10611110  RH  068%=      5-min Rain = 0
KOD1 111030Z 34012KT M06/M11 A3015 RMK A01 T10611110  RH  068%=      5-min Rain = 0
KOD1 111031Z 34011KT M06/M11 A3015 RMK A01 T10611110  RH  068%=      5-min Rain = 0
KOD1 111032Z 34012KT M06/M11 A3015 RMK A01 T10611110  RH  068%=      5-min Rain = 0
KOD1 111033Z 34013KT M06/M11 A3015 RMK A01 T10611110  RH  068%=      5-min Rain = 0
KOD1 111034Z 35011KT M06/M11 A3015 RMK A01 T10611110  RH  068%=      5-min Rain = 0
KOD1 111035Z 34011KT M06/M11 A3015 RMK A01 T10611110  RH  068%=      5-min Rain = 0
KOD1 111036Z 33011KT M06/M11 A3015 RMK A01 T10601110  RH  068%=      5-min Rain = 0
KOD1 111037Z 33012KT M06/M11 A3015 RMK A01 T10601110  RH  068%=      5-min Rain = 0
KOD1 111038Z 33011KT M06/M11 A3015 RMK A01 T10601110  RH  068%=      5-min Rain = 0
KOD1 111039Z 34013KT M06/M11 A3015 RMK A01 T10601110  RH  068%=      5-min Rain = 0
KOD1 111040Z 33014G19KT M06/M11 A3015 RMK A01 T10601110  RH  068%=      5-min Rain = 0
KOD1 111041Z 34014KT M06/M11 A3015 RMK A01 T10611110  RH  068%=      5-min Rain = 0
KOD1 111042Z 34014KT M06/M11 A3015 RMK A01 T10601110  RH  068%=      5-min Rain = 0
KOD1 111043Z 34015KT M06/M11 A3015 RMK A01 T10601111  RH  068%=      5-min Rain = 0
KOD1 111044Z 34015KT M06/M11 A3015 RMK A01 T10611111  RH  068%=      5-min Rain = 0
KOD1 111045Z 34014KT M06/M11 A3015 RMK A01 T10611111  RH  068%=      5-min Rain = 0
KOD1 111046Z 34012KT M06/M11 A3015 RMK A01 T10611111  RH  068%=      5-min Rain = 0
KOD1 111047Z 34011KT M06/M11 A3015 RMK A01 T10611110  RH  068%=      5-min Rain = 0
KOD1 111048Z 34010KT M06/M11 A3015 RMK A01 T10611110  RH  068%=      5-min Rain = 0
KOD1 111049Z 35012KT M06/M11 A3015 RMK A01 T10601110  RH  068%=      5-min Rain = 0
KOD1 111050Z 34010KT M06/M11 A3015 RMK A01 T10601110  RH  068%=      5-min Rain = 0
KOD1 111051Z 33009KT M06/M11 A3015 RMK A01 T10601110  RH  068%=      5-min Rain = 0
KOD1 111052Z 34011KT M06/M11 A3015 RMK A01 T10601110  RH  068%=      5-min Rain = 0
KOD1 111053Z 34013KT M06/M11 A3015 RMK A01 T10601110  RH  068%=      5-min Rain = 0
KOD1 111054Z 34014KT M06/M11 A3015 RMK A01 T10601111  RH  068%=      5-min Rain = 0
KOD1 111055Z 33013KT M06/M11 A3015 RMK A01 T10611111  RH  068%=      5-min Rain = 0
KOD1 111056Z 34013KT M06/M11 A3015 RMK A01 T10611111  RH  068%=      5-min Rain = 0
KOD1 111057Z 35013KT M06/M11 A3015 RMK A01 T10611111  RH  068%=      5-min Rain = 0
KOD1 111058Z 35013KT M06/M11 A3015 RMK A01 T10611110  RH  068%=      5-min Rain = 0
KOD1 111059Z 34012KT M06/M11 A3015 RMK A01 T10611110  RH  068%=      5-min Rain = 0
KOD1 111100Z 35011KT M06/M11 A3015 RMK A01 T10611110  RH  068%=      5-min Rain = 0
KOD1 111101Z 35012KT M06/M11 A3015 RMK A01 T10601110  RH  068%=      5-min Rain = 0
KOD1 111102Z 34014KT M06/M11 A3015 RMK A01 T10611111  RH  068%=      5-min Rain = 0
KOD1 111103Z 35016KT M06/M11 A3015 RMK A01 T10611111  RH  068%=      5-min Rain = 0
KOD1 111104Z 35013KT M06/M11 A3015 RMK A01 T10611111  RH  068%=      5-min Rain = 0
KOD1 111105Z 35013KT M06/M11 A3015 RMK A01 T10611111  RH  068%=      5-min Rain = 0
KOD1 111106Z 35013KT M06/M11 A3015 RMK A01 T10621111  RH  068%=      5-min Rain = 0
KOD1 111107Z 35012KT M06/M11 A3015 RMK A01 T10621111  RH  068%=      5-min Rain = 0
KOD1 111108Z 35012KT M06/M11 A3015 RMK A01 T10621111  RH  068%=      5-min Rain = 0
KOD1 111109Z 35014KT M06/M11 A3015 RMK A01 T10631111  RH  068%=      5-min Rain = 0
KOD1 111110Z 34014KT M06/M11 A3015 RMK A01 T10631111  RH  069%=      5-min Rain = 0
KOD1 111111Z 34012KT M06/M11 A3016 RMK A01 T10631111  RH  069%=      5-min Rain = 0
KOD1 111112Z 34011KT M06/M11 A3016 RMK A01 T10641111  RH  069%=      5-min Rain = 0
KOD1 111113Z 34013KT M06/M11 A3016 RMK A01 T10641111  RH  069%=      5-min Rain = 0
KOD1 111114Z 34011KT M06/M11 A3016 RMK A01 T10641111  RH  069%=      5-min Rain = 0
KOD1 111115Z 34010KT M06/M11 A3016 RMK A01 T10641111  RH  069%=      5-min Rain = 0
KOD1 111116Z 34011KT M06/M11 A3016 RMK A01 T10641111  RH  069%=      5-min Rain = 0
KOD1 111117Z 34012KT M06/M11 A3016 RMK A01 T10641111  RH  069%=      5-min Rain = 0
KOD1 111118Z 33008KT M06/M11 A3016 RMK A01 T10641112  RH  069%=      5-min Rain = 0
KOD1 111119Z 34009KT M07/M11 A3016 RMK A01 T10651112  RH  069%=      5-min Rain = 0
KOD1 111120Z 34011KT M07/M11 A3016 RMK A01 T10651112  RH  069%=      5-min Rain = 0
KOD1 111121Z 34011KT M07/M11 A3016 RMK A01 T10651112  RH  069%=      5-min Rain = 0
KOD1 111122Z 34010KT M07/M11 A3016 RMK A01 T10651112  RH  070%=      5-min Rain = 0
KOD1 111123Z 34009KT M07/M11 A3016 RMK A01 T10661112  RH  070%=      5-min Rain = 0
KOD1 111124Z 34009KT M07/M11 A3016 RMK A01 T10661112  RH  070%=      5-min Rain = 0
KOD1 111125Z 33010KT M07/M11 A3016 RMK A01 T10661112  RH  070%=      5-min Rain = 0
KOD1 111126Z 33009KT M07/M11 A3016 RMK A01 T10671112  RH  070%=      5-min Rain = 0
KOD1 111127Z 33009KT M07/M11 A3016 RMK A01 T10671112  RH  070%=      5-min Rain = 0
KOD1 111128Z 34009KT M07/M11 A3016 RMK A01 T10671112  RH  070%=      5-min Rain = 0
KOD1 111129Z 33009KT M07/M11 A3016 RMK A01 T10671112  RH  070%=      5-min Rain = 0
KOD1 111130Z 33010KT M07/M11 A3016 RMK A01 T10671112  RH  070%=      5-min Rain = 0
KOD1 111131Z 33008KT M07/M11 A3016 RMK A01 T10671112  RH  071%=      5-min Rain = 0
KOD1 111132Z 33010KT M07/M11 A3017 RMK A01 T10681112  RH  071%=      5-min Rain = 0
KOD1 111133Z 33009KT M07/M11 A3017 RMK A01 T10681112  RH  071%=      5-min Rain = 0
KOD1 111134Z 33008KT M07/M11 A3017 RMK A01 T10681113  RH  071%=      5-min Rain = 0
KOD1 111135Z 33008KT M07/M11 A3017 RMK A01 T10691113  RH  071%=      5-min Rain = 0
KOD1 111136Z 33008KT M07/M11 A3017 RMK A01 T10691113  RH  071%=      5-min Rain = 0
KOD1 111137Z 33008KT M07/M11 A3017 RMK A01 T10701113  RH  071%=      5-min Rain = 0
KOD1 111138Z 33007KT M07/M11 A3017 RMK A01 T10701113  RH  071%=      5-min Rain = 0
KOD1 111139Z 33007KT M07/M11 A3017 RMK A01 T10711114  RH  072%=      5-min Rain = 0
KOD1 111140Z 33009KT M07/M11 A3017 RMK A01 T10711113  RH  072%=      5-min Rain = 0
KOD1 111141Z 33007KT M07/M11 A3017 RMK A01 T10721114  RH  072%=      5-min Rain = 0
KOD1 111142Z 33007KT M07/M11 A3017 RMK A01 T10721114  RH  072%=      5-min Rain = 0
KOD1 111143Z 33008KT M07/M11 A3017 RMK A01 T10731114  RH  072%=      5-min Rain = 0
KOD1 111144Z 33008KT M07/M11 A3017 RMK A01 T10731114  RH  073%=      5-min Rain = 0
KOD1 111145Z 33008KT M07/M11 A3017 RMK A01 T10731114  RH  073%=      5-min Rain = 0
KOD1 111146Z 33006KT M07/M11 A3017 RMK A01 T10741114  RH  073%=      5-min Rain = 0
KOD1 111147Z 33007KT M07/M11 A3018 RMK A01 T10741114  RH  073%=      5-min Rain = 0
KOD1 111148Z 33007KT M07/M11 A3018 RMK A01 T10741114  RH  073%=      5-min Rain = 0
KOD1 111149Z 33006KT M08/M11 A3018 RMK A01 T10751114  RH  073%=      5-min Rain = 0
KOD1 111150Z 33006KT M08/M12 A3018 RMK A01 T10751115  RH  073%=      5-min Rain = 0
KOD1 111151Z 33007KT M08/M11 A3018 RMK A01 T10751114  RH  074%=      5-min Rain = 0
KOD1 111152Z 32006KT M08/M11 A3018 RMK A01 T10751114  RH  074%=      5-min Rain = 0
KOD1 111153Z 32007KT M08/M11 A3018 RMK A01 T10751114  RH  074%=      5-min Rain = 0
KOD1 111154Z 32006KT M08/M12 A3018 RMK A01 T10761115  RH  074%=      5-min Rain = 0
KOD1 111155Z 32007KT M08/M11 A3018 RMK A01 T10761114  RH  074%=      5-min Rain = 0
KOD1 111156Z 33007KT M08/M12 A3018 RMK A01 T10761115  RH  074%=      5-min Rain = 0
KOD1 111157Z 33008KT M08/M12 A3018 RMK A01 T10761115  RH  074%=      5-min Rain = 0
KOD1 111158Z 33008KT M08/M12 A3018 RMK A01 T10761115  RH  074%=      5-min Rain = 0
KOD1 111159Z 33008KT M08/M12 A3018 RMK A01 T10771115  RH  074%=      5-min Rain = 0
KOD1 111200Z 33008KT M08/M12 A3018 RMK A01 T10771115  RH  074%=      5-min Rain = 0
KOD1 111201Z 33008KT M08/M12 A3018 RMK A01 T10771115  RH  074%=      5-min Rain = 0
KOD1 111202Z 33007KT M08/M12 A3018 RMK A01 T10771115  RH  074%=      5-min Rain = 0
KOD1 111203Z 33007KT M08/M12 A3018 RMK A01 T10781115  RH  074%=      5-min Rain = 0
KOD1 111204Z 33007KT M08/M12 A3018 RMK A01 T10781115  RH  074%=      5-min Rain = 0
KOD1 111205Z 33007KT M08/M12 A3018 RMK A01 T10781115  RH  074%=      5-min Rain = 0
KOD1 111206Z 33006KT M08/M12 A3019 RMK A01 T10781115  RH  075%=      5-min Rain = 0
KOD1 111207Z 33006KT M08/M12 A3019 RMK A01 T10781116  RH  074%=      5-min Rain = 0
KOD1 111208Z 33006KT M08/M12 A3019 RMK A01 T10791116  RH  075%=      5-min Rain = 0
KOD1 111209Z 33006KT M08/M12 A3019 RMK A01 T10791116  RH  075%=      5-min Rain = 0
KOD1 111210Z 33006KT M08/M12 A3019 RMK A01 T10791116  RH  075%=      5-min Rain = 0
KOD1 111211Z 33007KT M08/M12 A3019 RMK A01 T10801117  RH  075%=      5-min Rain = 0
KOD1 111212Z 33006KT M08/M12 A3019 RMK A01 T10801117  RH  075%=      5-min Rain = 0
KOD1 111213Z 33007KT M08/M12 A3019 RMK A01 T10811117  RH  075%=      5-min Rain = 0
KOD1 111214Z 33006KT M08/M12 A3019 RMK A01 T10811117  RH  075%=      5-min Rain = 0
KOD1 111215Z 33006KT M08/M12 A3019 RMK A01 T10811117  RH  076%=      5-min Rain = 0
KOD1 111216Z 33006KT M08/M12 A3019 RMK A01 T10811117  RH  076%=      5-min Rain = 0
KOD1 111217Z 33006KT M08/M12 A3019 RMK A01 T10821117  RH  076%=      5-min Rain = 0
KOD1 111218Z 33007KT M08/M12 A3019 RMK A01 T10821117  RH  076%=      5-min Rain = 0
KOD1 111219Z 33006KT M08/M12 A3019 RMK A01 T10821117  RH  076%=      5-min Rain = 0
KOD1 111220Z 33006KT M08/M12 A3019 RMK A01 T10821117  RH  076%=      5-min Rain = 0
KOD1 111221Z 33007KT M08/M12 A3019 RMK A01 T10821117  RH  076%=      5-min Rain = 0
KOD1 111222Z 32007KT M08/M12 A3019 RMK A01 T10821116  RH  076%=      5-min Rain = 0
KOD1 111223Z 32006KT M08/M12 A3019 RMK A01 T10821116  RH  076%=      5-min Rain = 0
KOD1 111224Z 32006KT M08/M12 A3019 RMK A01 T10821117  RH  076%=      5-min Rain = 0
KOD1 111225Z 32007KT M08/M12 A3019 RMK A01 T10821116  RH  076%=      5-min Rain = 0
KOD1 111226Z 32006KT M08/M12 A302 RMK A01 T10821116  RH  076%=      5-min Rain = 0
KOD1 111227Z 32006KT M08/M12 A302 RMK A01 T10811116  RH  076%=      5-min Rain = 0
KOD1 111228Z 33006KT M08/M12 A302 RMK A01 T10811116  RH  076%=      5-min Rain = 0
KOD1 111229Z 32007KT M08/M12 A302 RMK A01 T10811116  RH  076%=      5-min Rain = 0
KOD1 111230Z 32006KT M08/M12 A302 RMK A01 T10811116  RH  076%=      5-min Rain = 0
KOD1 111231Z 32006KT M08/M12 A302 RMK A01 T10811117  RH  076%=      5-min Rain = 0
KOD1 111232Z 32006KT M08/M12 A302 RMK A01 T10811117  RH  076%=      5-min Rain = 0
KOD1 111233Z 32006KT M08/M12 A302 RMK A01 T10811117  RH  076%=      5-min Rain = 0
KOD1 111234Z 31006KT M08/M12 A302 RMK A01 T10811117  RH  075%=      5-min Rain = 0
KOD1 111235Z 31006KT M08/M12 A302 RMK A01 T10821117  RH  076%=      5-min Rain = 0
KOD1 111236Z 32006KT M08/M12 A302 RMK A01 T10821118  RH  076%=      5-min Rain = 0
KOD1 111237Z 31006KT M08/M12 A3021 RMK A01 T10821118  RH  076%=      5-min Rain = 0
KOD1 111238Z 31006KT M08/M12 A3021 RMK A01 T10831118  RH  076%=      5-min Rain = 0
KOD1 111239Z 31005KT M08/M12 A3021 RMK A01 T10831118  RH  076%=      5-min Rain = 0
KOD1 111240Z 31005KT M08/M12 A3021 RMK A01 T10841118  RH  076%=      5-min Rain = 0
KOD1 111241Z 31006KT M08/M12 A3021 RMK A01 T10841119  RH  076%=      5-min Rain = 0
KOD1 111242Z 31005KT M08/M12 A3021 RMK A01 T10841119  RH  076%=      5-min Rain = 0
KOD1 111243Z 32005KT M09/M12 A302 RMK A01 T10851119  RH  076%=      5-min Rain = 0
KOD1 111244Z 32005KT M09/M12 A302 RMK A01 T10851119  RH  076%=      5-min Rain = 0
KOD1 111245Z 32005KT M09/M12 A302 RMK A01 T10851119  RH  077%=      5-min Rain = 0
KOD1 111246Z 32005KT M09/M12 A302 RMK A01 T10861119  RH  077%=      5-min Rain = 0
KOD1 111247Z 32005KT M09/M12 A302 RMK A01 T10861119  RH  077%=      5-min Rain = 0
KOD1 111248Z 31005KT M09/M12 A3021 RMK A01 T10861119  RH  077%=      5-min Rain = 0
KOD1 111249Z 31005KT M09/M12 A3021 RMK A01 T10861119  RH  077%=      5-min Rain = 0
KOD1 111250Z 31004KT M09/M12 A3021 RMK A01 T10861119  RH  077%=      5-min Rain = 0
KOD1 111251Z 30005KT M09/M12 A3021 RMK A01 T10871120  RH  077%=      5-min Rain = 0
KOD1 111252Z 30005KT M09/M12 A3021 RMK A01 T10871120  RH  077%=      5-min Rain = 0
KOD1 111253Z 30005KT M09/M12 A3021 RMK A01 T10871121  RH  077%=      5-min Rain = 0
KOD1 111254Z 30005KT M09/M12 A3021 RMK A01 T10881121  RH  077%=      5-min Rain = 0
KOD1 111255Z 31005KT M09/M12 A3021 RMK A01 T10881121  RH  077%=      5-min Rain = 0
KOD1 111256Z 31005KT M09/M12 A3021 RMK A01 T10891121  RH  077%=      5-min Rain = 0
KOD1 111257Z 31005KT M09/M12 A3021 RMK A01 T10891121  RH  077%=      5-min Rain = 0
KOD1 111258Z 31005KT M09/M12 A3021 RMK A01 T10901122  RH  077%=      5-min Rain = 0
KOD1 111259Z 31005KT M09/M12 A3021 RMK A01 T10901122  RH  077%=      5-min Rain = 0
KOD1 111300Z 31005KT M09/M12 A3021 RMK A01 T10911123  RH  077%=      5-min Rain = 0
KOD1 111301Z 31005KT M09/M12 A3021 RMK A01 T10911123  RH  078%=      5-min Rain = 0
KOD1 111302Z 31005KT M09/M12 A3021 RMK A01 T10921124  RH  078%=      5-min Rain = 0
KOD1 111303Z 31006KT M09/M12 A3022 RMK A01 T10931124  RH  078%=      5-min Rain = 0
KOD1 111304Z 31006KT M09/M13 A3022 RMK A01 T10931125  RH  078%=      5-min Rain = 0
KOD1 111305Z 31006KT M09/M12 A3022 RMK A01 T10941124  RH  078%=      5-min Rain = 0
KOD1 111306Z 31006KT M09/M12 A3022 RMK A01 T10941124  RH  079%=      5-min Rain = 0
KOD1 111307Z 32006KT M09/M12 A3022 RMK A01 T10941124  RH  079%=      5-min Rain = 0
KOD1 111308Z 32006KT M09/M12 A3022 RMK A01 T10941124  RH  079%=      5-min Rain = 0
KOD1 111309Z 31006KT M10/M12 A3022 RMK A01 T10951124  RH  079%=      5-min Rain = 0
KOD1 111310Z 31006KT M10/M12 A3022 RMK A01 T10951124  RH  079%=      5-min Rain = 0
KOD1 111311Z 31005KT M09/M12 A3022 RMK A01 T10941124  RH  079%=      5-min Rain = 0
KOD1 111312Z 31005KT M09/M12 A3022 RMK A01 T10941124  RH  079%=      5-min Rain = 0
KOD1 111313Z 31004KT M09/M12 A3022 RMK A01 T10941124  RH  079%=      5-min Rain = 0
KOD1 111314Z 31004KT M09/M12 A3022 RMK A01 T10941124  RH  079%=      5-min Rain = 0
KOD1 111315Z 31004KT M09/M12 A3022 RMK A01 T10941124  RH  079%=      5-min Rain = 0
KOD1 111316Z 31004KT M10/M12 A3022 RMK A01 T10951124  RH  079%=      5-min Rain = 0
KOD1 111317Z 31005KT M10/M12 A3022 RMK A01 T10951124  RH  079%=      5-min Rain = 0
KOD1 111318Z 31005KT M10/M12 A3022 RMK A01 T10951124  RH  079%=      5-min Rain = 0
KOD1 111319Z 31004KT M10/M12 A3022 RMK A01 T10951124  RH  079%=      5-min Rain = 0
KOD1 111320Z 31004KT M10/M13 A3022 RMK A01 T10951125  RH  079%=      5-min Rain = 0
KOD1 111321Z 30004KT M10/M13 A3022 RMK A01 T10951125  RH  079%=      5-min Rain = 0
KOD1 111322Z 30004KT M10/M13 A3022 RMK A01 T10951125  RH  079%=      5-min Rain = 0
KOD1 111323Z 30005KT M10/M13 A3022 RMK A01 T10961125  RH  079%=      5-min Rain = 0
KOD1 111324Z 30005KT M10/M13 A3022 RMK A01 T10961125  RH  079%=      5-min Rain = 0
KOD1 111325Z 30005KT M10/M13 A3022 RMK A01 T10961125  RH  079%=      5-min Rain = 0
KOD1 111326Z 31006KT M10/M12 A3022 RMK A01 T10961124  RH  080%=      5-min Rain = 0
KOD1 111327Z 31006KT M10/M12 A3022 RMK A01 T10961124  RH  080%=      5-min Rain = 0
KOD1 111328Z 31006KT M10/M12 A3022 RMK A01 T10951123  RH  080%=      5-min Rain = 0
KOD1 111329Z 31006KT M10/M12 A3022 RMK A01 T10951122  RH  080%=      5-min Rain = 0
KOD1 111330Z 30006KT M09/M12 A3022 RMK A01 T10941122  RH  080%=      5-min Rain = 0
KOD1 111331Z 30005KT M09/M12 A3022 RMK A01 T10941122  RH  080%=      5-min Rain = 0
KOD1 111332Z 30005KT M09/M12 A3022 RMK A01 T10941122  RH  080%=      5-min Rain = 0
KOD1 111333Z 30005KT M09/M12 A3023 RMK A01 T10931122  RH  080%=      5-min Rain = 0
KOD1 111334Z 30005KT M09/M12 A3023 RMK A01 T10931122  RH  080%=      5-min Rain = 0
KOD1 111335Z 30005KT M09/M12 A3023 RMK A01 T10931122  RH  080%=      5-min Rain = 0
KOD1 111336Z 30005KT M09/M12 A3023 RMK A01 T10931122  RH  079%=      5-min Rain = 0
KOD1 111337Z 30005KT M09/M12 A3023 RMK A01 T10921122  RH  079%=      5-min Rain = 0
KOD1 111338Z 30005KT M09/M12 A3023 RMK A01 T10921121  RH  079%=      5-min Rain = 0
KOD1 111339Z 30005KT M09/M12 A3023 RMK A01 T10921121  RH  079%=      5-min Rain = 0
KOD1 111340Z 30004KT M09/M12 A3023 RMK A01 T10921121  RH  079%=      5-min Rain = 0
KOD1 111341Z 30004KT M09/M12 A3023 RMK A01 T10921121  RH  079%=      5-min Rain = 0
KOD1 111342Z 29004KT M09/M12 A3023 RMK A01 T10911120  RH  079%=      5-min Rain = 0
KOD1 111343Z 29004KT M09/M12 A3023 RMK A01 T10911120  RH  079%=      5-min Rain = 0
KOD1 111344Z 29005KT M09/M12 A3023 RMK A01 T10911120  RH  079%=      5-min Rain = 0
KOD1 111345Z 29005KT M09/M12 A3023 RMK A01 T10901120  RH  079%=      5-min Rain = 0
KOD1 111346Z 29005KT M09/M12 A3023 RMK A01 T10901120  RH  079%=      5-min Rain = 0
KOD1 111347Z 29005KT M09/M12 A3023 RMK A01 T10901119  RH  079%=      5-min Rain = 0
KOD1 111348Z 29005KT M09/M12 A3023 RMK A01 T10891119  RH  079%=      5-min Rain = 0
KOD1 111349Z 29005KT M09/M12 A3023 RMK A01 T10891119  RH  079%=      5-min Rain = 0
KOD1 111350Z 29005KT M09/M12 A3023 RMK A01 T10891119  RH  079%=      5-min Rain = 0
KOD1 111351Z 29005KT M09/M12 A3023 RMK A01 T10891119  RH  079%=      5-min Rain = 0
KOD1 111352Z 29005KT M09/M12 A3023 RMK A01 T10891119  RH  079%=      5-min Rain = 0
KOD1 111353Z 29005KT M09/M12 A3023 RMK A01 T10881119  RH  079%=      5-min Rain = 0
KOD1 111354Z 29004KT M09/M12 A3023 RMK A01 T10881119  RH  079%=      5-min Rain = 0
KOD1 111355Z 29005KT M09/M12 A3024 RMK A01 T10881119  RH  079%=      5-min Rain = 0
KOD1 111356Z 29005KT M09/M12 A3024 RMK A01 T10881118  RH  079%=      5-min Rain = 0
KOD1 111357Z 29005KT M09/M12 A3024 RMK A01 T10881118  RH  079%=      5-min Rain = 0
KOD1 111358Z 29005KT M09/M12 A3024 RMK A01 T10871118  RH  079%=      5-min Rain = 0
KOD1 111359Z 29005KT M09/M12 A3024 RMK A01 T10871117  RH  079%=      5-min Rain = 0
KOD1 111400Z 29004KT M09/M12 A3024 RMK A01 T10871117  RH  079%=      5-min Rain = 0
KOD1 111401Z 29004KT M09/M12 A3024 RMK A01 T10861117  RH  078%=      5-min Rain = 0
KOD1 111402Z 29004KT M09/M12 A3024 RMK A01 T10861117  RH  078%=      5-min Rain = 0
KOD1 111403Z 30005KT M09/M12 A3024 RMK A01 T10851117  RH  078%=      5-min Rain = 0
KOD1 111404Z 30005KT M09/M12 A3024 RMK A01 T10851117  RH  078%=      5-min Rain = 0
KOD1 111405Z 30005KT M09/M12 A3024 RMK A01 T10851116  RH  078%=      5-min Rain = 0
KOD1 111406Z 30006KT M08/M12 A3024 RMK A01 T10841116  RH  078%=      5-min Rain = 0
KOD1 111407Z 30005KT M08/M12 A3024 RMK A01 T10841116  RH  077%=      5-min Rain = 0
KOD1 111408Z 29005KT M08/M12 A3024 RMK A01 T10831116  RH  077%=      5-min Rain = 0
KOD1 111409Z 29005KT M08/M12 A3024 RMK A01 T10831116  RH  077%=      5-min Rain = 0
KOD1 111410Z 30005KT M08/M12 A3025 RMK A01 T10831116  RH  077%=      5-min Rain = 0
KOD1 111411Z 30005KT M08/M12 A3025 RMK A01 T10821116  RH  077%=      5-min Rain = 0
KOD1 111412Z 30005KT M08/M12 A3024 RMK A01 T10821116  RH  076%=      5-min Rain = 0
KOD1 111413Z 30005KT M08/M12 A3024 RMK A01 T10821116  RH  076%=      5-min Rain = 0
KOD1 111414Z 30005KT M08/M12 A3025 RMK A01 T10821116  RH  076%=      5-min Rain = 0
KOD1 111415Z 30006KT M08/M12 A3025 RMK A01 T10821116  RH  076%=      5-min Rain = 0
KOD1 111416Z 30006KT M08/M12 A3025 RMK A01 T10811116  RH  076%=      5-min Rain = 0
KOD1 111417Z 31006KT M08/M12 A3025 RMK A01 T10811116  RH  076%=      5-min Rain = 0
KOD1 111418Z 31005KT M08/M12 A3025 RMK A01 T10811116  RH  076%=      5-min Rain = 0
KOD1 111419Z 31006KT M08/M12 A3024 RMK A01 T10801116  RH  076%=      5-min Rain = 0
KOD1 111420Z 31006KT M08/M12 A3025 RMK A01 T10801116  RH  075%=      5-min Rain = 0
KOD1 111421Z 31006KT M08/M12 A3025 RMK A01 T10791116  RH  075%=      5-min Rain = 0
KOD1 111422Z 31007KT M08/M12 A3025 RMK A01 T10791116  RH  075%=      5-min Rain = 0
KOD1 111423Z 31006KT M08/M12 A3025 RMK A01 T10781115  RH  075%=      5-min Rain = 0
KOD1 111424Z 31006KT M08/M12 A3025 RMK A01 T10781115  RH  074%=      5-min Rain = 0
KOD1 111425Z 32006KT M08/M12 A3025 RMK A01 T10771115  RH  074%=      5-min Rain = 0
KOD1 111426Z 32006KT M08/M12 A3025 RMK A01 T10761115  RH  074%=      5-min Rain = 0
KOD1 111427Z 32006KT M08/M11 A3025 RMK A01 T10761114  RH  074%=      5-min Rain = 0
KOD1 111428Z 32006KT M07/M11 A3025 RMK A01 T10741114  RH  073%=      5-min Rain = 0
KOD1 111429Z 32006KT M07/M11 A3025 RMK A01 T10731114  RH  073%=      5-min Rain = 0
KOD1 111430Z 32006KT M07/M11 A3025 RMK A01 T10721114  RH  072%=      5-min Rain = 0
KOD1 111431Z 32007KT M07/M12 A3025 RMK A01 T10721115  RH  071%=      5-min Rain = 0
KOD1 111432Z 33007KT M07/M11 A3025 RMK A01 T10711114  RH  071%=      5-min Rain = 0
KOD1 111433Z 32006KT M07/M12 A3025 RMK A01 T10701115  RH  071%=      5-min Rain = 0
KOD1 111434Z 32006KT M07/M11 A3025 RMK A01 T10701114  RH  071%=      5-min Rain = 0
KOD1 111435Z 33007KT M07/M12 A3025 RMK A01 T10691115  RH  070%=      5-min Rain = 0
KOD1 111436Z 33006KT M07/M11 A3025 RMK A01 T10691114  RH  070%=      5-min Rain = 0
KOD1 111437Z 33006KT M07/M11 A3025 RMK A01 T10681114  RH  070%=      5-min Rain = 0
KOD1 111438Z 32008KT M07/M12 A3025 RMK A01 T10681115  RH  069%=      5-min Rain = 0
KOD1 111439Z 32008KT M07/M12 A3026 RMK A01 T10681116  RH  069%=      5-min Rain = 0
KOD1 111440Z 32008KT M07/M12 A3026 RMK A01 T10671116  RH  069%=      5-min Rain = 0
KOD1 111441Z 33007KT M07/M12 A3026 RMK A01 T10671116  RH  068%=      5-min Rain = 0
KOD1 111442Z 32007KT M07/M12 A3026 RMK A01 T10661115  RH  068%=      5-min Rain = 0
KOD1 111443Z 32009KT M07/M12 A3026 RMK A01 T10661116  RH  068%=      5-min Rain = 0
KOD1 111444Z 32008KT M07/M12 A3026 RMK A01 T10661116  RH  067%=      5-min Rain = 0
KOD1 111445Z 33008KT M07/M12 A3026 RMK A01 T10661116  RH  068%=      5-min Rain = 0
KOD1 111446Z 33008KT M07/M12 A3026 RMK A01 T10651116  RH  067%=      5-min Rain = 0
KOD1 111447Z 33010KT M07/M12 A3026 RMK A01 T10651117  RH  067%=      5-min Rain = 0
KOD1 111448Z 33010KT M06/M12 A3026 RMK A01 T10641118  RH  066%=      5-min Rain = 0
KOD1 111449Z 32011KT M06/M12 A3026 RMK A01 T10641118  RH  066%=      5-min Rain = 0
KOD1 111450Z 33009KT M06/M12 A3026 RMK A01 T10641118  RH  065%=      5-min Rain = 0
KOD1 111451Z 32008KT M06/M12 A3026 RMK A01 T10641118  RH  065%=      5-min Rain = 0
KOD1 111452Z 33008KT M06/M12 A3026 RMK A01 T10631119  RH  065%=      5-min Rain = 0
KOD1 111453Z 33008KT M06/M12 A3026 RMK A01 T10631119  RH  065%=      5-min Rain = 0
KOD1 111454Z 32009KT M06/M12 A3026 RMK A01 T10631119  RH  065%=      5-min Rain = 0
KOD1 111455Z 33012KT M06/M12 A3026 RMK A01 T10631120  RH  064%=      5-min Rain = 0
KOD1 111456Z 33011KT M06/M12 A3026 RMK A01 T10631121  RH  064%=      5-min Rain = 0
KOD1 111457Z 34011KT M06/M12 A3026 RMK A01 T10631121  RH  064%=      5-min Rain = 0
KOD1 111458Z 33010KT M06/M12 A3026 RMK A01 T10631120  RH  064%=      5-min Rain = 0
KOD1 111459Z 33009KT M06/M12 A3027 RMK A01 T10631121  RH  064%=      5-min Rain = 0
KOD1 111500Z 33009KT M06/M12 A3027 RMK A01 T10631120  RH  064%=      5-min Rain = 0
KOD1 111501Z 33007KT M06/M12 A3027 RMK A01 T10631120  RH  064%=      5-min Rain = 0
KOD1 111502Z 34008KT M06/M12 A3027 RMK A01 T10631119  RH  064%=      5-min Rain = 0
KOD1 111503Z 33008KT M06/M12 A3027 RMK A01 T10621120  RH  064%=      5-min Rain = 0
KOD1 111504Z 33007KT M06/M12 A3027 RMK A01 T10631120  RH  064%=      5-min Rain = 0
KOD1 111505Z 32006KT M06/M12 A3027 RMK A01 T10621120  RH  064%=      5-min Rain = 0
KOD1 111506Z 33008KT M06/M12 A3027 RMK A01 T10621120  RH  063%=      5-min Rain = 0
KOD1 111507Z 33008KT M06/M12 A3027 RMK A01 T10621121  RH  063%=      5-min Rain = 0
KOD1 111508Z 33006KT M06/M12 A3027 RMK A01 T10621120  RH  064%=      5-min Rain = 0
KOD1 111509Z 33009KT M06/M12 A3027 RMK A01 T10621120  RH  063%=      5-min Rain = 0
KOD1 111510Z 33008KT M06/M12 A3027 RMK A01 T10621121  RH  063%=      5-min Rain = 0
KOD1 111511Z 33008KT M06/M12 A3027 RMK A01 T10621120  RH  063%=      5-min Rain = 0
KOD1 111512Z 34008KT M06/M12 A3027 RMK A01 T10621120  RH  063%=      5-min Rain = 0
KOD1 111513Z 34007KT M06/M12 A3027 RMK A01 T10621120  RH  063%=      5-min Rain = 0
KOD1 111514Z 34008KT M06/M12 A3027 RMK A01 T10621120  RH  063%=      5-min Rain = 0
KOD1 111515Z 34008KT M06/M12 A3027 RMK A01 T10621120  RH  063%=      5-min Rain = 0
KOD1 111516Z 33006KT M06/M12 A3027 RMK A01 T10611119  RH  064%=      5-min Rain = 0
KOD1 111517Z 33006KT M06/M12 A3027 RMK A01 T10611119  RH  064%=      5-min Rain = 0
KOD1 111518Z 33006KT M06/M12 A3027 RMK A01 T10601119  RH  063%=      5-min Rain = 0
KOD1 111519Z 33008KT M06/M12 A3027 RMK A01 T10601119  RH  063%=      5-min Rain = 0
KOD1 111520Z 33008KT M06/M12 A3028 RMK A01 T10601119  RH  063%=      5-min Rain = 0
KOD1 111521Z 33007KT M06/M12 A3028 RMK A01 T10601119  RH  063%=      5-min Rain = 0
KOD1 111522Z 34008KT M06/M12 A3028 RMK A01 T10591118  RH  063%=      5-min Rain = 0
KOD1 111523Z 33007KT M06/M12 A3028 RMK A01 T10591119  RH  063%=      5-min Rain = 0
KOD1 111524Z 33007KT M06/M12 A3028 RMK A01 T10581118  RH  062%=      5-min Rain = 0
KOD1 111525Z 33008KT M06/M12 A3028 RMK A01 T10571119  RH  062%=      5-min Rain = 0
KOD1 111526Z 32008KT M06/M12 A3028 RMK A01 T10571120  RH  062%=      5-min Rain = 0
KOD1 111527Z 33008KT M06/M12 A3028 RMK A01 T10581120  RH  062%=      5-min Rain = 0
KOD1 111528Z 33007KT M06/M12 A3028 RMK A01 T10581120  RH  062%=      5-min Rain = 0
KOD1 111529Z 33007KT M06/M12 A3028 RMK A01 T10571120  RH  061%=      5-min Rain = 0
KOD1 111530Z 33007KT M06/M12 A3028 RMK A01 T10571121  RH  061%=      5-min Rain = 0
KOD1 111531Z 34006KT M06/M12 A3028 RMK A01 T10561119  RH  061%=      5-min Rain = 0
KOD1 111532Z 34008KT M06/M12 A3028 RMK A01 T10551119  RH  061%=      5-min Rain = 0
KOD1 111533Z 33007KT M05/M12 A3028 RMK A01 T10541120  RH  060%=      5-min Rain = 0
KOD1 111534Z 34007KT M05/M12 A3028 RMK A01 T10531120  RH  059%=      5-min Rain = 0
KOD1 111535Z 34007KT M05/M12 A3028 RMK A01 T10521119  RH  059%=      5-min Rain = 0
KOD1 111536Z 33007KT M05/M12 A3028 RMK A01 T10501119  RH  058%=      5-min Rain = 0
KOD1 111537Z 33008KT M05/M12 A3028 RMK A01 T10481121  RH  057%=      5-min Rain = 0
KOD1 111538Z 33008KT M05/M12 A3028 RMK A01 T10481121  RH  056%=      5-min Rain = 0
KOD1 111539Z 33009KT M05/M12 A3028 RMK A01 T10481122  RH  056%=      5-min Rain = 0
KOD1 111540Z 33007KT M05/M12 A3028 RMK A01 T10481122  RH  056%=      5-min Rain = 0
KOD1 111541Z 34008KT M05/M12 A3028 RMK A01 T10471121  RH  056%=      5-min Rain = 0
KOD1 111542Z 36007KT M05/M12 A3028 RMK A01 T10461122  RH  055%=      5-min Rain = 0
KOD1 111543Z 35007KT M05/M12 A3028 RMK A01 T10451123  RH  055%=      5-min Rain = 0
KOD1 111544Z 34008KT M05/M12 A3028 RMK A01 T10451122  RH  055%=      5-min Rain = 0
KOD1 111545Z 33007KT M04/M12 A3028 RMK A01 T10441121  RH  055%=      5-min Rain = 0
KOD1 111546Z 34006KT M04/M12 A3028 RMK A01 T10431121  RH  054%=      5-min Rain = 0
KOD1 111547Z 33007KT M04/M12 A3028 RMK A01 T10421120  RH  055%=      5-min Rain = 0
KOD1 111548Z 33007KT M04/M12 A3028 RMK A01 T10401120  RH  054%=      5-min Rain = 0
KOD1 111549Z 34007KT M04/M12 A3028 RMK A01 T10391120  RH  053%=      5-min Rain = 0
KOD1 111550Z 33007KT M04/M12 A3028 RMK A01 T10381121  RH  053%=      5-min Rain = 0
KOD1 111551Z 35006KT M04/M12 A3028 RMK A01 T10381120  RH  053%=      5-min Rain = 0
KOD1 111552Z 35009KT M04/M12 A3028 RMK A01 T10371121  RH  052%=      5-min Rain = 0
KOD1 111553Z 33011KT M04/M12 A3029 RMK A01 T10381124  RH  051%=      5-min Rain = 0
KOD1 111554Z 33010KT M04/M12 A3029 RMK A01 T10391123  RH  052%=      5-min Rain = 0
KOD1 111555Z 34011KT M04/M12 A3028 RMK A01 T10381123  RH  052%=      5-min Rain = 0
KOD1 111556Z 33011KT M04/M12 A3028 RMK A01 T10371122  RH  052%=      5-min Rain = 0
KOD1 111557Z 34008G13KT M04/M12 A3028 RMK A01 T10361122  RH  051%=      5-min Rain = 0
KOD1 111558Z 34010KT M04/M12 A3028 RMK A01 T10351122  RH  051%=      5-min Rain = 0
KOD1 111559Z 35010KT M03/M12 A3028 RMK A01 T10341121  RH  051%=      5-min Rain = 0
KOD1 111600Z 00010KT M03/M12 A3028 RMK A01 T10331122  RH  050%=      5-min Rain = 0
KOD1 111601Z 36011KT M03/M12 A3028 RMK A01 T10331122  RH  050%=      5-min Rain = 0
KOD1 111602Z 33011KT M03/M12 A3028 RMK A01 T10331123  RH  050%=      5-min Rain = 0
KOD1 111603Z 32011KT M03/M12 A3028 RMK A01 T10341122  RH  051%=      5-min Rain = 0
KOD1 111604Z 33010KT M03/M12 A3028 RMK A01 T10331122  RH  050%=      5-min Rain = 0
KOD1 111605Z 34009KT M03/M12 A3029 RMK A01 T10321121  RH  050%=      5-min Rain = 0
KOD1 111606Z 35008KT M03/M12 A3029 RMK A01 T10311122  RH  050%=      5-min Rain = 0
KOD1 111607Z 34008KT M03/M12 A3029 RMK A01 T10301121  RH  050%=      5-min Rain = 0
KOD1 111608Z 34009KT M03/M12 A3029 RMK A01 T10291121  RH  049%=      5-min Rain = 0
KOD1 111609Z 35012KT M03/M12 A3028 RMK A01 T10291123  RH  048%=      5-min Rain = 0
KOD1 111610Z 34012KT M03/M12 A3028 RMK A01 T10301122  RH  049%=      5-min Rain = 0
KOD1 111611Z 34012KT M03/M12 A3028 RMK A01 T10311124  RH  048%=      5-min Rain = 0
KOD1 111612Z 34011KT M03/M12 A3029 RMK A01 T10331124  RH  049%=      5-min Rain = 0
KOD1 111613Z 34008KT M03/M12 A3029 RMK A01 T10331123  RH  050%=      5-min Rain = 0
KOD1 111614Z 35008KT M03/M12 A3029 RMK A01 T10321122  RH  050%=      5-min Rain = 0
KOD1 111615Z 34009KT M03/M12 A3028 RMK A01 T10311122  RH  050%=      5-min Rain = 0
KOD1 111616Z 34009KT M03/M12 A3028 RMK A01 T10301121  RH  050%=      5-min Rain = 0
KOD1 111617Z 34010KT M03/M12 A3028 RMK A01 T10281121  RH  049%=      5-min Rain = 0
KOD1 111618Z 34010KT M03/M12 A3028 RMK A01 T10281123  RH  048%=      5-min Rain = 0
KOD1 111619Z 33010KT M03/M12 A3028 RMK A01 T10291120  RH  049%=      5-min Rain = 0
KOD1 111620Z 32011KT M03/M12 A3028 RMK A01 T10271121  RH  048%=      5-min Rain = 0
KOD1 111621Z 31010KT M03/M12 A3028 RMK A01 T10261122  RH  048%=      5-min Rain = 0
KOD1 111622Z 33008KT M03/M12 A3028 RMK A01 T10271122  RH  048%=      5-min Rain = 0
KOD1 111623Z 34010G15KT M03/M12 A3028 RMK A01 T10261120  RH  048%=      5-min Rain = 0
KOD1 111624Z 33012KT M02/M12 A3028 RMK A01 T10241122  RH  047%=      5-min Rain = 0
KOD1 111625Z 33013KT M02/M12 A3028 RMK A01 T10241122  RH  047%=      5-min Rain = 0
KOD1 111626Z 33011KT M03/M12 A3028 RMK A01 T10251123  RH  047%=      5-min Rain = 0
KOD1 111627Z 33011KT M03/M12 A3028 RMK A01 T10251122  RH  047%=      5-min Rain = 0
KOD1 111628Z 34010KT M03/M12 A3028 RMK A01 T10251122  RH  047%=      5-min Rain = 0
KOD1 111629Z 36008KT M03/M12 A3027 RMK A01 T10251122  RH  047%=      5-min Rain = 0
KOD1 111630Z 34008KT M02/M12 A3027 RMK A01 T10241121  RH  047%=      5-min Rain = 0
KOD1 111631Z 35010KT M02/M12 A3027 RMK A01 T10221120  RH  047%=      5-min Rain = 0
KOD1 111632Z 35011KT M02/M12 A3027 RMK A01 T10201120  RH  047%=      5-min Rain = 0
KOD1 111633Z 35011G16KT M02/M12 A3027 RMK A01 T10181120  RH  045%=      5-min Rain = 0
KOD1 111634Z 00011KT M02/M12 A3027 RMK A01 T10181122  RH  045%=      5-min Rain = 0
KOD1 111635Z 36010KT M02/M12 A3026 RMK A01 T10201122  RH  046%=      5-min Rain = 0
KOD1 111636Z 35009KT M02/M12 A3026 RMK A01 T10201118  RH  047%=      5-min Rain = 0
KOD1 111637Z 33012KT M02/M12 A3026 RMK A01 T10171120  RH  045%=      5-min Rain = 0
KOD1 111638Z 34010G15KT M02/M12 A3027 RMK A01 T10161119  RH  045%=      5-min Rain = 0
KOD1 111639Z 33012KT M01/M12 A3027 RMK A01 T10141121  RH  044%=      5-min Rain = 0
KOD1 111640Z 34009KT M02/M12 A3027 RMK A01 T10151121  RH  044%=      5-min Rain = 0
KOD1 111641Z 33006KT M02/M12 A3027 RMK A01 T10161119  RH  045%=      5-min Rain = 0
KOD1 111642Z 32011KT M01/M12 A3027 RMK A01 T10131119  RH  045%=      5-min Rain = 0
KOD1 111643Z 31011KT M01/M12 A3027 RMK A01 T10131122  RH  043%=      5-min Rain = 0
KOD1 111644Z 32010KT M02/M12 A3027 RMK A01 T10151123  RH  044%=      5-min Rain = 0
KOD1 111645Z 33008KT M02/M12 A3027 RMK A01 T10171121  RH  045%=      5-min Rain = 0
KOD1 111646Z 32009KT M02/M12 A3027 RMK A01 T10151119  RH  045%=      5-min Rain = 0
KOD1 111647Z 33007KT M02/M12 A3027 RMK A01 T10161122  RH  044%=      5-min Rain = 0
KOD1 111648Z 34009KT M02/M12 A3027 RMK A01 T10161120  RH  045%=      5-min Rain = 0
KOD1 111649Z 35008KT M02/M12 A3027 RMK A01 T10161119  RH  045%=      5-min Rain = 0
KOD1 111650Z 34011KT M01/M12 A3027 RMK A01 T10141117  RH  045%=      5-min Rain = 0
KOD1 111651Z 36010KT M01/M12 A3027 RMK A01 T10101119  RH  043%=      5-min Rain = 0
KOD1 111652Z 33010KT M01/M12 A3027 RMK A01 T10101120  RH  043%=      5-min Rain = 0
KOD1 111653Z 32010KT M01/M12 A3027 RMK A01 T10081119  RH  043%=      5-min Rain = 0
KOD1 111654Z 32012KT M01/M12 A3027 RMK A01 T10091121  RH  042%=      5-min Rain = 0
KOD1 111655Z 31009KT M01/M12 A3027 RMK A01 T10111120  RH  043%=      5-min Rain = 0
KOD1 111656Z 32008G14KT M01/M12 A3027 RMK A01 T10111119  RH  044%=      5-min Rain = 0
KOD1 111657Z 33013KT M01/M12 A3027 RMK A01 T10101120  RH  043%=      5-min Rain = 0
KOD1 111658Z 33010KT M01/M12 A3027 RMK A01 T10111121  RH  043%=      5-min Rain = 0
KOD1 111659Z 34013KT M01/M12 A3027 RMK A01 T10111122  RH  043%=      5-min Rain = 0
KOD1 111700Z 34011KT M01/M12 A3027 RMK A01 T10121120  RH  044%=      5-min Rain = 0
KOD1 111701Z 34011KT M01/M12 A3027 RMK A01 T10101120  RH  043%=      5-min Rain = 0
KOD1 111702Z 34012KT M01/M12 A3027 RMK A01 T10091121  RH  043%=      5-min Rain = 0
KOD1 111703Z 33010KT M01/M12 A3027 RMK A01 T10101121  RH  043%=      5-min Rain = 0
KOD1 111704Z 31011KT M01/M12 A3027 RMK A01 T10111121  RH  043%=      5-min Rain = 0
KOD1 111705Z 32012KT M01/M12 A3027 RMK A01 T10121121  RH  043%=      5-min Rain = 0
KOD1 111706Z 34010KT M01/M12 A3027 RMK A01 T10121119  RH  044%=      5-min Rain = 0
KOD1 111707Z 34008KT M01/M12 A3027 RMK A01 T10101120  RH  043%=      5-min Rain = 0
KOD1 111708Z 30010KT M01/M12 A3027 RMK A01 T10101120  RH  043%=      5-min Rain = 0
KOD1 111709Z 31010KT M01/M12 A3027 RMK A01 T10091120  RH  043%=      5-min Rain = 0
KOD1 111710Z 31007KT M01/M12 A3027 RMK A01 T10091119  RH  043%=      5-min Rain = 0
KOD1 111711Z 31007KT M01/M12 A3027 RMK A01 T10071119  RH  042%=      5-min Rain = 0
KOD1 111712Z 32011KT M01/M12 A3027 RMK A01 T10051119  RH  042%=      5-min Rain = 0
KOD1 111713Z 34010G15KT M01/M12 A3027 RMK A01 T10051120  RH  041%=      5-min Rain = 0
KOD1 111714Z 32011KT M00/M12 A3027 RMK A01 T10041122  RH  041%=      5-min Rain = 0
KOD1 111715Z 34011KT M00/M12 A3027 RMK A01 T10041120  RH  041%=      5-min Rain = 0
KOD1 111716Z 35010KT M01/M12 A3027 RMK A01 T10051122  RH  041%=      5-min Rain = 0
KOD1 111717Z 33011KT M01/M12 A3027 RMK A01 T10051121  RH  041%=      5-min Rain = 0
KOD1 111718Z 34013KT M01/M12 A3027 RMK A01 T10051123  RH  041%=      5-min Rain = 0
KOD1 111719Z 34010KT M01/M12 A3027 RMK A01 T10081123  RH  041%=      5-min Rain = 0
KOD1 111720Z 35009KT M01/M12 A3027 RMK A01 T10091122  RH  042%=      5-min Rain = 0
KOD1 111721Z 35011KT M01/M12 A3027 RMK A01 T10091123  RH  042%=      5-min Rain = 0
KOD1 111722Z 35013KT M01/M12 A3027 RMK A01 T10091122  RH  042%=      5-min Rain = 0
KOD1 111723Z 34010KT M01/M12 A3027 RMK A01 T10091123  RH  042%=      5-min Rain = 0
KOD1 111724Z 34007KT M01/M12 A3027 RMK A01 T10101121  RH  043%=      5-min Rain = 0
KOD1 111725Z 33010KT M01/M12 A3027 RMK A01 T10091121  RH  042%=      5-min Rain = 0
KOD1 111726Z 32010KT M01/M12 A3027 RMK A01 T10081122  RH  042%=      5-min Rain = 0
KOD1 111727Z 34008KT M01/M12 A3027 RMK A01 T10081122  RH  042%=      5-min Rain = 0
KOD1 111728Z 31010KT M01/M12 A3027 RMK A01 T10081122  RH  042%=      5-min Rain = 0
KOD1 111729Z 33012KT M01/M12 A3028 RMK A01 T10071123  RH  041%=      5-min Rain = 0
KOD1 111730Z 32011KT M01/M12 A3028 RMK A01 T10081124  RH  041%=      5-min Rain = 0
KOD1 111731Z 32013KT M01/M12 A3028 RMK A01 T10091124  RH  042%=      5-min Rain = 0
KOD1 111732Z 32011KT M01/M12 A3028 RMK A01 T10121123  RH  042%=      5-min Rain = 0
KOD1 111733Z 32011KT M01/M12 A3027 RMK A01 T10121122  RH  043%=      5-min Rain = 0
KOD1 111734Z 33012KT M01/M12 A3027 RMK A01 T10111123  RH  042%=      5-min Rain = 0
KOD1 111735Z 33011KT M01/M12 A3027 RMK A01 T10121124  RH  042%=      5-min Rain = 0
KOD1 111736Z 33008KT M01/M12 A3027 RMK A01 T10131123  RH  043%=      5-min Rain = 0
KOD1 111737Z 33010KT M01/M12 A3027 RMK A01 T10131122  RH  043%=      5-min Rain = 0
KOD1 111738Z 33011KT M01/M12 A3027 RMK A01 T10131123  RH  043%=      5-min Rain = 0
KOD1 111739Z 33011KT M01/M12 A3027 RMK A01 T10131123  RH  043%=      5-min Rain = 0
KOD1 111740Z 34012KT M01/M12 A3027 RMK A01 T10131123  RH  043%=      5-min Rain = 0
KOD1 111741Z 34010KT M01/M12 A3027 RMK A01 T10131122  RH  043%=      5-min Rain = 0
KOD1 111742Z 32010KT M01/M12 A3027 RMK A01 T10111123  RH  043%=      5-min Rain = 0
KOD1 111743Z 33009KT M01/M12 A3028 RMK A01 T10111122  RH  043%=      5-min Rain = 0
KOD1 111744Z 33013KT M01/M12 A3028 RMK A01 T10101122  RH  042%=      5-min Rain = 0
KOD1 111745Z 34014KT M01/M12 A3028 RMK A01 T10111123  RH  042%=      5-min Rain = 0
KOD1 111746Z 32013KT M01/M12 A3028 RMK A01 T10111122  RH  043%=      5-min Rain = 0
KOD1 111747Z 33012KT M01/M12 A3028 RMK A01 T10111123  RH  042%=      5-min Rain = 0
KOD1 111748Z 33015KT M01/M12 A3028 RMK A01 T10121123  RH  043%=      5-min Rain = 0
KOD1 111749Z 33013KT M01/M12 A3028 RMK A01 T10121123  RH  043%=      5-min Rain = 0
KOD1 111750Z 33012KT M01/M12 A3028 RMK A01 T10111122  RH  043%=      5-min Rain = 0
KOD1 111751Z 33011KT M01/M12 A3028 RMK A01 T10111122  RH  043%=      5-min Rain = 0
KOD1 111752Z 34009KT M01/M12 A3028 RMK A01 T10111123  RH  042%=      5-min Rain = 0
KOD1 111753Z 35009KT M01/M12 A3028 RMK A01 T10101121  RH  043%=      5-min Rain = 0
KOD1 111754Z 32011KT M01/M12 A3028 RMK A01 T10091120  RH  043%=      5-min Rain = 0
KOD1 111755Z 32014KT M01/M12 A3027 RMK A01 T10071122  RH  041%=      5-min Rain = 0
KOD1 111756Z 32012KT M01/M12 A3027 RMK A01 T10091122  RH  042%=      5-min Rain = 0
KOD1 111757Z 32010KT M01/M12 A3027 RMK A01 T10101121  RH  043%=      5-min Rain = 0
KOD1 111758Z 32010KT M01/M12 A3027 RMK A01 T10111122  RH  043%=      5-min Rain = 0
KOD1 111759Z 33008KT M01/M12 A3027 RMK A01 T10111121  RH  043%=      5-min Rain = 0
KOD1 111800Z 32007KT M01/M12 A3027 RMK A01 T10111121  RH  043%=      5-min Rain = 0
KOD1 111801Z 34008KT M01/M12 A3027 RMK A01 T10101120  RH  043%=      5-min Rain = 0
KOD1 111802Z 34010KT M01/M12 A3027 RMK A01 T10081120  RH  043%=      5-min Rain = 0
KOD1 111803Z 34012KT M01/M12 A3027 RMK A01 T10071121  RH  042%=      5-min Rain = 0
KOD1 111804Z 34011KT M01/M12 A3028 RMK A01 T10081121  RH  042%=      5-min Rain = 0
KOD1 111805Z 32010KT M01/M12 A3028 RMK A01 T10071119  RH  042%=      5-min Rain = 0
KOD1 111806Z 33011KT M01/M12 A3028 RMK A01 T10061121  RH  041%=      5-min Rain = 0
KOD1 111807Z 34010KT M01/M12 A3028 RMK A01 T10071121  RH  042%=      5-min Rain = 0
KOD1 111808Z 33009KT M01/M12 A3027 RMK A01 T10071121  RH  042%=      5-min Rain = 0
KOD1 111809Z 33009KT M01/M12 A3027 RMK A01 T10071120  RH  042%=      5-min Rain = 0
KOD1 111810Z 33011KT M01/M12 A3027 RMK A01 T10061120  RH  042%=      5-min Rain = 0
KOD1 111811Z 33013KT M01/M12 A3027 RMK A01 T10061121  RH  041%=      5-min Rain = 0
KOD1 111812Z 34010KT M01/M12 A3027 RMK A01 T10061121  RH  041%=      5-min Rain = 0
KOD1 111813Z 34010KT M01/M12 A3027 RMK A01 T10051120  RH  041%=      5-min Rain = 0
KOD1 111814Z 34012KT M00/M12 A3026 RMK A01 T10041120  RH  041%=      5-min Rain = 0
KOD1 111815Z 35012KT M00/M12 A3026 RMK A01 T10041121  RH  041%=      5-min Rain = 0
KOD1 111816Z 34015KT M00/M12 A3026 RMK A01 T10031120  RH  041%=      5-min Rain = 0
KOD1 111817Z 34015KT M00/M12 A3026 RMK A01 T10031121  RH  041%=      5-min Rain = 0
KOD1 111818Z 34013KT M00/M12 A3026 RMK A01 T10031120  RH  041%=      5-min Rain = 0
KOD1 111819Z 34013KT M00/M12 A3026 RMK A01 T10021121  RH  040%=      5-min Rain = 0
KOD1 111820Z 32013KT M00/M12 A3026 RMK A01 T10021120  RH  041%=      5-min Rain = 0
KOD1 111821Z 32014KT M00/M12 A3026 RMK A01 T10011120  RH  040%=      5-min Rain = 0
KOD1 111822Z 33012KT 00/12 A3026 RMK A01 T00000-120  RH  040%=      5-min Rain = 0
KOD1 111823Z 33011KT 00/M12 A3026 RMK A01 T00011120  RH  040%=      5-min Rain = 0
KOD1 111824Z 32010KT 00/M12 A3026 RMK A01 T00021119  RH  040%=      5-min Rain = 0
KOD1 111825Z 32011KT 00/M12 A3026 RMK A01 T00031119  RH  039%=      5-min Rain = 0
KOD1 111826Z 33014KT 00/M12 A3026 RMK A01 T00041120  RH  039%=      5-min Rain = 0
KOD1 111827Z 33012KT 00/M12 A3026 RMK A01 T00031120  RH  039%=      5-min Rain = 0
KOD1 111828Z 33009KT 00/M12 A3026 RMK A01 T00041120  RH  039%=      5-min Rain = 0
KOD1 111829Z 34011KT 01/M12 A3026 RMK A01 T00051119  RH  039%=      5-min Rain = 0
KOD1 111830Z 34013KT 01/M12 A3026 RMK A01 T00071119  RH  038%=      5-min Rain = 0
KOD1 111831Z 34014KT 01/M12 A3026 RMK A01 T00061121  RH  038%=      5-min Rain = 0
KOD1 111832Z 35014KT 01/M12 A3026 RMK A01 T00061121  RH  038%=      5-min Rain = 0
KOD1 111833Z 35011KT 00/M12 A3026 RMK A01 T00041122  RH  038%=      5-min Rain = 0
KOD1 111834Z 35011KT 00/M12 A3026 RMK A01 T00031121  RH  039%=      5-min Rain = 0
KOD1 111835Z 33013G18KT 00/M12 A3027 RMK A01 T00041119  RH  039%=      5-min Rain = 0
KOD1 111836Z 34013KT 01/M12 A3027 RMK A01 T00061121  RH  038%=      5-min Rain = 0
KOD1 111837Z 34014KT 01/M12 A3027 RMK A01 T00051121  RH  038%=      5-min Rain = 0
KOD1 111838Z 34012KT 01/M12 A3027 RMK A01 T00051122  RH  038%=      5-min Rain = 0
KOD1 111839Z 33010KT 01/M12 A3027 RMK A01 T00051119  RH  039%=      5-min Rain = 0
KOD1 111840Z 35012KT 01/M12 A3027 RMK A01 T00061122  RH  038%=      5-min Rain = 0
KOD1 111841Z 34012KT 01/M12 A3026 RMK A01 T00061121  RH  038%=      5-min Rain = 0
KOD1 111842Z 34012KT 01/M12 A3026 RMK A01 T00071120  RH  038%=      5-min Rain = 0
KOD1 111843Z 35009KT 01/M12 A3026 RMK A01 T00091120  RH  037%=      5-min Rain = 0
KOD1 111844Z 35011KT 01/M12 A3026 RMK A01 T00091121  RH  037%=      5-min Rain = 0
KOD1 111845Z 34011KT 01/M12 A3026 RMK A01 T00101119  RH  038%=      5-min Rain = 0
KOD1 111846Z 34012KT 01/M12 A3025 RMK A01 T00111122  RH  037%=      5-min Rain = 0
KOD1 111847Z 32008G13KT 01/M12 A3025 RMK A01 T00101120  RH  037%=      5-min Rain = 0
KOD1 111848Z 31011KT 01/M12 A3025 RMK A01 T00111119  RH  037%=      5-min Rain = 0
KOD1 111849Z 31011KT 01/M12 A3025 RMK A01 T00121121  RH  036%=      5-min Rain = 0
KOD1 111850Z 32011KT 01/M12 A3025 RMK A01 T00111120  RH  037%=      5-min Rain = 0
KOD1 111851Z 33009KT 01/M12 A3025 RMK A01 T00111119  RH  037%=      5-min Rain = 0
KOD1 111852Z 35010KT 01/M12 A3025 RMK A01 T00121120  RH  037%=      5-min Rain = 0
KOD1 111853Z 35006KT 01/M12 A3025 RMK A01 T00111122  RH  037%=      5-min Rain = 0
KOD1 111854Z 34009G14KT 01/M12 A3025 RMK A01 T00091121  RH  037%=      5-min Rain = 0
KOD1 111855Z 33012KT 01/M12 A3025 RMK A01 T00101121  RH  037%=      5-min Rain = 0
KOD1 111856Z 34009KT 01/M12 A3025 RMK A01 T00101121  RH  037%=      5-min Rain = 0
KOD1 111857Z 35008KT 01/M12 A3025 RMK A01 T00111121  RH  037%=      5-min Rain = 0
KOD1 111858Z 33010G15KT 01/M12 A3025 RMK A01 T00111120  RH  037%=      5-min Rain = 0
KOD1 111859Z 33010KT 01/M12 A3025 RMK A01 T00111121  RH  037%=      5-min Rain = 0
KOD1 111900Z 35008KT 01/M12 A3024 RMK A01 T00111122  RH  036%=      5-min Rain = 0
KOD1 111901Z 36008KT 01/M12 A3024 RMK A01 T00091122  RH  037%=      5-min Rain = 0
KOD1 111902Z 34008KT 01/M12 A3024 RMK A01 T00091120  RH  037%=      5-min Rain = 0
KOD1 111903Z 33009KT 01/M12 A3024 RMK A01 T00101122  RH  037%=      5-min Rain = 0
KOD1 111904Z 33007KT 01/M12 A3024 RMK A01 T00091122  RH  037%=      5-min Rain = 0
KOD1 111905Z 34010G15KT 01/M12 A3024 RMK A01 T00101122  RH  037%=      5-min Rain = 0
KOD1 111906Z 34012KT 01/M12 A3024 RMK A01 T00101122  RH  037%=      5-min Rain = 0
KOD1 111907Z 34011G16KT 01/M12 A3024 RMK A01 T00111121  RH  037%=      5-min Rain = 0
KOD1 111908Z 33014KT 01/M12 A3024 RMK A01 T00121122  RH  036%=      5-min Rain = 0
KOD1 111909Z 33011KT 01/M12 A3024 RMK A01 T00111122  RH  036%=      5-min Rain = 0
KOD1 111910Z 33008KT 01/M12 A3024 RMK A01 T00111121  RH  036%=      5-min Rain = 0
KOD1 111911Z 32010KT 01/M12 A3024 RMK A01 T00121121  RH  036%=      5-min Rain = 0
KOD1 111912Z 31009KT 01/M12 A3024 RMK A01 T00121122  RH  036%=      5-min Rain = 0
KOD1 111913Z 34009KT 01/M12 A3024 RMK A01 T00121122  RH  036%=      5-min Rain = 0
KOD1 111914Z 34008KT 01/M12 A3025 RMK A01 T00121123  RH  036%=      5-min Rain = 0
KOD1 111915Z 34008KT 01/M12 A3024 RMK A01 T00111123  RH  036%=      5-min Rain = 0
KOD1 111916Z 34008KT 01/M12 A3024 RMK A01 T00111122  RH  036%=      5-min Rain = 0
KOD1 111917Z 33007KT 01/M12 A3024 RMK A01 T00121122  RH  036%=      5-min Rain = 0
KOD1 111918Z 34008KT 01/M12 A3024 RMK A01 T00121123  RH  036%=      5-min Rain = 0
KOD1 111919Z 33009KT 01/M12 A3024 RMK A01 T00121122  RH  036%=      5-min Rain = 0
KOD1 111920Z 33007KT 01/M12 A3024 RMK A01 T00131122  RH  036%=      5-min Rain = 0
KOD1 111921Z 35008KT 01/M12 A3025 RMK A01 T00141121  RH  036%=      5-min Rain = 0
KOD1 111922Z 36009KT 02/M13 A3025 RMK A01 T00161125  RH  034%=      5-min Rain = 0
KOD1 111923Z 35009KT 02/M13 A3024 RMK A01 T00151125  RH  034%=      5-min Rain = 0
KOD1 111924Z 36010KT 02/M12 A3025 RMK A01 T00151124  RH  035%=      5-min Rain = 0
KOD1 111925Z 00011KT 02/M12 A3024 RMK A01 T00151124  RH  035%=      5-min Rain = 0
KOD1 111926Z 35009KT 02/M12 A3024 RMK A01 T00151124  RH  035%=      5-min Rain = 0
KOD1 111927Z 34010KT 02/M12 A3024 RMK A01 T00151123  RH  035%=      5-min Rain = 0
KOD1 111928Z 35010KT 02/M12 A3024 RMK A01 T00151124  RH  035%=      5-min Rain = 0
KOD1 111929Z 34008KT 02/M12 A3024 RMK A01 T00151124  RH  035%=      5-min Rain = 0
KOD1 111930Z 34007KT 02/M12 A3024 RMK A01 T00151120  RH  036%=      5-min Rain = 0
KOD1 111931Z 34008KT 02/M12 A3024 RMK A01 T00191121  RH  035%=      5-min Rain = 0
KOD1 111932Z 33011KT 02/M12 A3024 RMK A01 T00201123  RH  034%=      5-min Rain = 0
KOD1 111933Z 34011KT 02/M13 A3024 RMK A01 T00211126  RH  033%=      5-min Rain = 0
KOD1 111934Z 33008KT 02/M13 A3024 RMK A01 T00191126  RH  033%=      5-min Rain = 0
KOD1 111935Z 34008KT 02/M13 A3024 RMK A01 T00191125  RH  034%=      5-min Rain = 0
KOD1 111936Z 34005KT 02/M12 A3024 RMK A01 T00191123  RH  034%=      5-min Rain = 0
KOD1 111937Z 36007KT 02/M12 A3023 RMK A01 T00211123  RH  034%=      5-min Rain = 0
KOD1 111938Z 35013KT 02/M12 A3023 RMK A01 T00241124  RH  033%=      5-min Rain = 0
KOD1 111939Z 35013KT 03/M13 A3023 RMK A01 T00251126  RH  032%=      5-min Rain = 0
KOD1 111940Z 35012KT 02/M13 A3023 RMK A01 T00241126  RH  032%=      5-min Rain = 0
KOD1 111941Z 00011KT 02/M13 A3023 RMK A01 T00221127  RH  032%=      5-min Rain = 0
KOD1 111942Z 34008KT 02/M13 A3023 RMK A01 T00201126  RH  033%=      5-min Rain = 0
KOD1 111943Z 00009KT 02/M13 A3023 RMK A01 T00201125  RH  033%=      5-min Rain = 0
KOD1 111944Z 35009KT 02/M13 A3023 RMK A01 T00211125  RH  033%=      5-min Rain = 0
KOD1 111945Z 34010KT 02/M13 A3023 RMK A01 T00231125  RH  032%=      5-min Rain = 0
KOD1 111946Z 00008KT 02/M12 A3023 RMK A01 T00231124  RH  033%=      5-min Rain = 0
KOD1 111947Z 00010KT 02/M12 A3023 RMK A01 T00241124  RH  033%=      5-min Rain = 0
KOD1 111948Z 35010KT 03/M12 A3023 RMK A01 T00251124  RH  032%=      5-min Rain = 0
KOD1 111949Z 34008KT 03/M12 A3023 RMK A01 T00261124  RH  032%=      5-min Rain = 0
KOD1 111950Z 35007KT 03/M12 A3023 RMK A01 T00261124  RH  032%=      5-min Rain = 0
KOD1 111951Z 36010KT 03/M12 A3023 RMK A01 T00271123  RH  032%=      5-min Rain = 0
KOD1 111952Z 02009KT 03/M12 A3023 RMK A01 T00291124  RH  032%=      5-min Rain = 0
KOD1 111953Z 02007KT 03/M12 A3023 RMK A01 T00291124  RH  031%=      5-min Rain = 0
KOD1 111954Z 02007KT 03/M13 A3023 RMK A01 T00281125  RH  032%=      5-min Rain = 0
KOD1 111955Z 36006KT 03/M12 A3023 RMK A01 T00271124  RH  032%=      5-min Rain = 0
KOD1 111956Z 01007G12KT 03/M12 A3023 RMK A01 T00271123  RH  032%=      5-min Rain = 0
KOD1 111957Z 34010KT 03/M12 A3023 RMK A01 T00301123  RH  032%=      5-min Rain = 0
KOD1 111958Z 34011KT 03/M13 A3023 RMK A01 T00301125  RH  031%=      5-min Rain = 0
KOD1 111959Z 36006G11KT 03/M13 A3023 RMK A01 T00271126  RH  031%=      5-min Rain = 0
KOD1 112000Z 34007KT 03/M13 A3023 RMK A01 T00261125  RH  032%=      5-min Rain = 0
KOD1 112001Z 33010KT 03/M13 A3023 RMK A01 T00271126  RH  032%=      5-min Rain = 0
KOD1 112002Z 35006KT 03/M13 A3023 RMK A01 T00281126  RH  031%=      5-min Rain = 0
KOD1 112003Z 35006KT 03/M13 A3023 RMK A01 T00291126  RH  031%=      5-min Rain = 0
KOD1 112004Z 00006KT 03/M13 A3023 RMK A01 T00281126  RH  031%=      5-min Rain = 0
KOD1 112005Z 33009KT 03/M13 A3023 RMK A01 T00291126  RH  031%=      5-min Rain = 0
KOD1 112006Z 32009KT 03/M13 A3023 RMK A01 T00291127  RH  031%=      5-min Rain = 0
KOD1 112007Z 33011KT 03/M13 A3023 RMK A01 T00301126  RH  031%=      5-min Rain = 0
KOD1 112008Z 33008KT 03/M13 A3023 RMK A01 T00311126  RH  030%=      5-min Rain = 0
KOD1 112009Z 32009KT 03/M13 A3023 RMK A01 T00321125  RH  030%=      5-min Rain = 0
KOD1 112010Z 34009KT 03/M13 A3023 RMK A01 T00341126  RH  030%=      5-min Rain = 0
KOD1 112011Z 33010KT 03/M13 A3023 RMK A01 T00331127  RH  030%=      5-min Rain = 0
KOD1 112012Z 33008KT 03/M13 A3022 RMK A01 T00321127  RH  030%=      5-min Rain = 0
KOD1 112013Z 33008KT 03/M13 A3022 RMK A01 T00301126  RH  031%=      5-min Rain = 0
KOD1 112014Z 01009KT 03/M13 A3022 RMK A01 T00311126  RH  031%=      5-min Rain = 0
KOD1 112015Z 00009KT 03/M13 A3022 RMK A01 T00311127  RH  030%=      5-min Rain = 0
KOD1 112016Z 35008KT 03/M13 A3022 RMK A01 T00321126  RH  030%=      5-min Rain = 0
KOD1 112017Z 36008KT 03/M13 A3022 RMK A01 T00321127  RH  030%=      5-min Rain = 0
KOD1 112018Z 00007KT 03/M13 A3022 RMK A01 T00311125  RH  031%=      5-min Rain = 0
KOD1 112019Z 01008KT 03/M13 A3022 RMK A01 T00321126  RH  030%=      5-min Rain = 0
KOD1 112020Z 01007KT 03/M13 A3022 RMK A01 T00331126  RH  030%=      5-min Rain = 0
KOD1 112021Z 36005KT 03/M13 A3022 RMK A01 T00331127  RH  030%=      5-min Rain = 0
KOD1 112022Z 02007KT 03/M13 A3022 RMK A01 T00321126  RH  030%=      5-min Rain = 0
KOD1 112023Z 02008KT 03/M13 A3022 RMK A01 T00321127  RH  030%=      5-min Rain = 0
KOD1 112024Z 01009KT 03/M13 A3022 RMK A01 T00301127  RH  031%=      5-min Rain = 0
KOD1 112025Z 02007KT 03/M13 A3022 RMK A01 T00281126  RH  031%=      5-min Rain = 0
KOD1 112026Z 02007KT 03/M13 A3022 RMK A01 T00281127  RH  031%=      5-min Rain = 0
KOD1 112027Z 01008KT 03/M13 A3022 RMK A01 T00281127  RH  031%=      5-min Rain = 0
KOD1 112028Z 00007KT 03/M13 A3022 RMK A01 T00281126  RH  031%=      5-min Rain = 0
KOD1 112029Z 00007KT 03/M12 A3022 RMK A01 T00311124  RH  031%=      5-min Rain = 0
KOD1 112030Z 35009KT 03/M13 A3022 RMK A01 T00331126  RH  030%=      5-min Rain = 0
KOD1 112031Z 35009KT 03/M13 A3022 RMK A01 T00331126  RH  030%=      5-min Rain = 0
KOD1 112032Z 35007KT 03/M13 A3022 RMK A01 T00331125  RH  030%=      5-min Rain = 0
KOD1 112033Z 34009KT 04/M12 A3022 RMK A01 T00351124  RH  030%=      5-min Rain = 0
KOD1 112034Z 33009KT 04/M13 A3022 RMK A01 T00361126  RH  030%=      5-min Rain = 0
KOD1 112035Z 33009KT 04/M13 A3022 RMK A01 T00361126  RH  030%=      5-min Rain = 0
KOD1 112036Z 33007KT 03/M13 A3022 RMK A01 T00341126  RH  030%=      5-min Rain = 0
KOD1 112037Z 32005KT 03/M13 A3022 RMK A01 T00341126  RH  030%=      5-min Rain = 0
KOD1 112038Z 32006KT 03/M13 A3022 RMK A01 T00331126  RH  030%=      5-min Rain = 0
KOD1 112039Z 36006KT 03/M12 A3022 RMK A01 T00331124  RH  031%=      5-min Rain = 0
KOD1 112040Z 03007KT 03/M13 A3022 RMK A01 T00341125  RH  030%=      5-min Rain = 0
KOD1 112041Z 01007KT 04/M12 A3022 RMK A01 T00361124  RH  030%=      5-min Rain = 0
KOD1 112042Z 01007KT 04/M13 A3022 RMK A01 T00371125  RH  030%=      5-min Rain = 0
KOD1 112043Z 02006KT 04/M13 A3022 RMK A01 T00371127  RH  029%=      5-min Rain = 0
KOD1 112044Z 02006KT 04/M13 A3022 RMK A01 T00351126  RH  030%=      5-min Rain = 0
KOD1 112045Z 36007KT 03/M13 A3022 RMK A01 T00341125  RH  030%=      5-min Rain = 0
KOD1 112046Z 36009KT 04/M13 A3022 RMK A01 T00351125  RH  030%=      5-min Rain = 0
KOD1 112047Z 01011KT 04/M13 A3022 RMK A01 T00351126  RH  030%=      5-min Rain = 0
KOD1 112048Z 36007KT 04/M13 A3022 RMK A01 T00351126  RH  030%=      5-min Rain = 0
KOD1 112049Z 01008KT 03/M13 A3022 RMK A01 T00341126  RH  030%=      5-min Rain = 0
KOD1 112050Z 02008KT 03/M13 A3022 RMK A01 T00341125  RH  030%=      5-min Rain = 0
KOD1 112051Z 02006KT 04/M13 A3022 RMK A01 T00351126  RH  030%=      5-min Rain = 0
KOD1 112052Z 03005KT 04/M13 A3021 RMK A01 T00351125  RH  030%=      5-min Rain = 0
KOD1 112053Z 02008KT 04/M12 A3021 RMK A01 T00361124  RH  030%=      5-min Rain = 0
KOD1 112054Z 02010KT 04/M13 A3021 RMK A01 T00381125  RH  029%=      5-min Rain = 0
KOD1 112055Z 01010KT 04/M13 A3021 RMK A01 T00391125  RH  029%=      5-min Rain = 0
KOD1 112056Z 01011KT 04/M13 A3021 RMK A01 T00391125  RH  029%=      5-min Rain = 0
KOD1 112057Z 01008KT 04/M12 A3021 RMK A01 T00391124  RH  029%=      5-min Rain = 0
KOD1 112058Z 36006KT 04/M12 A3021 RMK A01 T00401124  RH  029%=      5-min Rain = 0
KOD1 112059Z 01009KT 04/M12 A3021 RMK A01 T00401124  RH  029%=      5-min Rain = 0
KOD1 112100Z 01010KT 04/M12 A3021 RMK A01 T00411124  RH  029%=      5-min Rain = 0
KOD1 112101Z 02010KT 04/M13 A3021 RMK A01 T00411125  RH  029%=      5-min Rain = 0
KOD1 112102Z 00008KT 04/M13 A3021 RMK A01 T00401125  RH  029%=      5-min Rain = 0
KOD1 112103Z 35007KT 04/M13 A3021 RMK A01 T00401125  RH  029%=      5-min Rain = 0
KOD1 112104Z 35005KT 04/M12 A3021 RMK A01 T00391124  RH  029%=      5-min Rain = 0
KOD1 112105Z 01006KT 04/M12 A3021 RMK A01 T00401124  RH  029%=      5-min Rain = 0
KOD1 112106Z 02006KT 04/M13 A3021 RMK A01 T00401125  RH  029%=      5-min Rain = 0
KOD1 112107Z 00011KT 04/M12 A3021 RMK A01 T00401124  RH  029%=      5-min Rain = 0
KOD1 112108Z 00009KT 04/M13 A3021 RMK A01 T00401125  RH  029%=      5-min Rain = 0
KOD1 112109Z 00006KT 04/M12 A3021 RMK A01 T00391123  RH  030%=      5-min Rain = 0
KOD1 112110Z 00009KT 04/M12 A3021 RMK A01 T00421123  RH  029%=      5-min Rain = 0
KOD1 112111Z 00008KT 04/M12 A3021 RMK A01 T00411124  RH  029%=      5-min Rain = 0
KOD1 112112Z 00010KT 04/M12 A3021 RMK A01 T00421123  RH  029%=      5-min Rain = 0
KOD1 112113Z 01008KT 04/M13 A3021 RMK A01 T00421125  RH  029%=      5-min Rain = 0
KOD1 112114Z 36007KT 04/M13 A3021 RMK A01 T00401125  RH  029%=      5-min Rain = 0
KOD1 112115Z 36006KT 04/M12 A3021 RMK A01 T00381124  RH  030%=      5-min Rain = 0
KOD1 112116Z 00005KT 04/M12 A3021 RMK A01 T00371124  RH  030%=      5-min Rain = 0
KOD1 112117Z 01004KT 04/M12 A3021 RMK A01 T00371124  RH  030%=      5-min Rain = 0
KOD1 112118Z 01005KT 04/M12 A302 RMK A01 T00381124  RH  030%=      5-min Rain = 0
KOD1 112119Z 35005KT 04/M12 A302 RMK A01 T00391122  RH  030%=      5-min Rain = 0
KOD1 112120Z 35005KT 04/M12 A302 RMK A01 T00411123  RH  029%=      5-min Rain = 0
KOD1 112121Z 35006KT 04/M12 A302 RMK A01 T00421124  RH  029%=      5-min Rain = 0
KOD1 112122Z 03007KT 04/M12 A302 RMK A01 T00421124  RH  029%=      5-min Rain = 0
KOD1 112123Z 03008G13KT 04/M12 A302 RMK A01 T00421124  RH  029%=      5-min Rain = 0
KOD1 112124Z 02010KT 04/M12 A302 RMK A01 T00441123  RH  029%=      5-min Rain = 0
KOD1 112125Z 03009KT 05/M12 A302 RMK A01 T00451124  RH  028%=      5-min Rain = 0
KOD1 112126Z 03010KT 04/M12 A302 RMK A01 T00441124  RH  028%=      5-min Rain = 0
KOD1 112127Z 03008KT 04/M12 A302 RMK A01 T00441124  RH  028%=      5-min Rain = 0
KOD1 112128Z 04005KT 04/M13 A302 RMK A01 T00421125  RH  029%=      5-min Rain = 0
KOD1 112129Z 04004KT 04/M13 A302 RMK A01 T00411125  RH  029%=      5-min Rain = 0
KOD1 112130Z 04005KT 04/M12 A302 RMK A01 T00411124  RH  029%=      5-min Rain = 0
KOD1 112131Z 04007KT 04/M13 A302 RMK A01 T00411125  RH  029%=      5-min Rain = 0
KOD1 112132Z 04004KT 04/M12 A302 RMK A01 T00411123  RH  029%=      5-min Rain = 0
KOD1 112133Z 02005KT 04/M12 A302 RMK A01 T00421123  RH  029%=      5-min Rain = 0
KOD1 112134Z 03008KT 04/M12 A302 RMK A01 T00441123  RH  029%=      5-min Rain = 0
KOD1 112135Z 00009KT 05/M12 A302 RMK A01 T00461124  RH  028%=      5-min Rain = 0
KOD1 112136Z 02008KT 05/M12 A302 RMK A01 T00461124  RH  028%=      5-min Rain = 0
KOD1 112137Z 02006KT 05/M13 A302 RMK A01 T00451125  RH  028%=      5-min Rain = 0
KOD1 112138Z 01007KT 05/M12 A302 RMK A01 T00451123  RH  028%=      5-min Rain = 0
KOD1 112139Z 00006KT 05/M12 A302 RMK A01 T00451123  RH  028%=      5-min Rain = 0
KOD1 112140Z 04008KT 05/M12 A302 RMK A01 T00471123  RH  028%=      5-min Rain = 0
KOD1 112141Z 04008KT 05/M12 A302 RMK A01 T00481123  RH  028%=      5-min Rain = 0
KOD1 112142Z 03005KT 05/M12 A302 RMK A01 T00481123  RH  028%=      5-min Rain = 0
KOD1 112143Z 02005KT 05/M12 A302 RMK A01 T00491122  RH  028%=      5-min Rain = 0
KOD1 112144Z 03004KT 05/M12 A302 RMK A01 T00501122  RH  028%=      5-min Rain = 0
KOD1 112145Z 02004KT 05/M12 A302 RMK A01 T00501122  RH  028%=      5-min Rain = 0
KOD1 112146Z 01005KT 05/M12 A302 RMK A01 T00511123  RH  027%=      5-min Rain = 0
KOD1 112147Z 02004KT 05/M12 A302 RMK A01 T00501123  RH  027%=      5-min Rain = 0
KOD1 112148Z 02006KT 05/M12 A302 RMK A01 T00491122  RH  028%=      5-min Rain = 0
KOD1 112149Z 02007KT 05/M12 A302 RMK A01 T00491124  RH  027%=      5-min Rain = 0
KOD1 112150Z 03007KT 05/M12 A302 RMK A01 T00471124  RH  028%=      5-min Rain = 0
KOD1 112151Z 00005KT 05/M12 A302 RMK A01 T00481122  RH  028%=      5-min Rain = 0
KOD1 112152Z 02007KT 05/M12 A302 RMK A01 T00491123  RH  028%=      5-min Rain = 0
KOD1 112153Z 02009KT 05/M12 A302 RMK A01 T00491124  RH  027%=      5-min Rain = 0
KOD1 112154Z 03007KT 05/M12 A302 RMK A01 T00481122  RH  028%=      5-min Rain = 0
KOD1 112155Z 03008KT 05/M12 A302 RMK A01 T00491122  RH  028%=      5-min Rain = 0
KOD1 112156Z 02009KT 05/M12 A302 RMK A01 T00501123  RH  027%=      5-min Rain = 0
KOD1 112157Z 01007KT 05/M12 A302 RMK A01 T00491124  RH  028%=      5-min Rain = 0
KOD1 112158Z 01007KT 05/M12 A302 RMK A01 T00481122  RH  028%=      5-min Rain = 0
KOD1 112159Z 03005KT 05/M12 A302 RMK A01 T00471123  RH  028%=      5-min Rain = 0
KOD1 112200Z 35005KT 05/M12 A302 RMK A01 T00461122  RH  028%=      5-min Rain = 0
KOD1 112201Z 02004KT 05/M12 A302 RMK A01 T00461123  RH  028%=      5-min Rain = 0
KOD1 112202Z 04004KT 05/M12 A302 RMK A01 T00461122  RH  028%=      5-min Rain = 0
KOD1 112203Z 04004KT 05/M12 A302 RMK A01 T00461123  RH  028%=      5-min Rain = 0
KOD1 112204Z 02004KT 05/M12 A302 RMK A01 T00461122  RH  028%=      5-min Rain = 0
KOD1 112205Z 03005KT 05/M12 A302 RMK A01 T00481122  RH  028%=      5-min Rain = 0
KOD1 112206Z 03005KT 05/M12 A302 RMK A01 T00491121  RH  028%=      5-min Rain = 0
KOD1 112207Z 04007KT 05/M12 A302 RMK A01 T00501123  RH  027%=      5-min Rain = 0
KOD1 112208Z 03007KT 05/M12 A302 RMK A01 T00501122  RH  028%=      5-min Rain = 0
KOD1 112209Z 00007KT 05/M12 A302 RMK A01 T00521121  RH  027%=      5-min Rain = 0
KOD1 112210Z 00007KT 05/M12 A302 RMK A01 T00531123  RH  027%=      5-min Rain = 0
KOD1 112211Z 36005KT 05/M12 A302 RMK A01 T00521124  RH  027%=      5-min Rain = 0
KOD1 112212Z 34006KT 05/M12 A302 RMK A01 T00511123  RH  027%=      5-min Rain = 0
KOD1 112213Z 00008KT 05/M12 A302 RMK A01 T00501124  RH  027%=      5-min Rain = 0
KOD1 112214Z 01007KT 05/M13 A302 RMK A01 T00481125  RH  027%=      5-min Rain = 0
KOD1 112215Z 02005KT 05/M12 A302 RMK A01 T00471124  RH  028%=      5-min Rain = 0
KOD1 112216Z 00006KT 05/M12 A302 RMK A01 T00481124  RH  028%=      5-min Rain = 0
KOD1 112217Z 35006KT 05/M12 A302 RMK A01 T00471123  RH  028%=      5-min Rain = 0
KOD1 112218Z 35006KT 05/M12 A302 RMK A01 T00471123  RH  028%=      5-min Rain = 0
KOD1 112219Z 03007KT 05/M12 A3021 RMK A01 T00481123  RH  028%=      5-min Rain = 0
KOD1 112220Z 02005KT 05/M12 A3021 RMK A01 T00471124  RH  028%=      5-min Rain = 0
KOD1 112221Z 01003KT 05/M12 A302 RMK A01 T00471123  RH  028%=      5-min Rain = 0
KOD1 112222Z 02003KT 05/M12 A302 RMK A01 T00471122  RH  028%=      5-min Rain = 0
KOD1 112223Z 36003KT 05/M12 A302 RMK A01 T00481122  RH  028%=      5-min Rain = 0
KOD1 112224Z 00005KT 05/M12 A302 RMK A01 T00481122  RH  028%=      5-min Rain = 0
KOD1 112225Z 01007KT 05/M12 A302 RMK A01 T00491123  RH  028%=      5-min Rain = 0
KOD1 112226Z 02006KT 05/M12 A302 RMK A01 T00481123  RH  028%=      5-min Rain = 0
KOD1 112227Z 02004KT 05/M12 A302 RMK A01 T00471123  RH  028%=      5-min Rain = 0
KOD1 112228Z 01006KT 05/M12 A302 RMK A01 T00471123  RH  028%=      5-min Rain = 0
KOD1 112229Z 33006KT 05/M12 A302 RMK A01 T00471122  RH  028%=      5-min Rain = 0
KOD1 112230Z 35007KT 05/M12 A302 RMK A01 T00481122  RH  028%=      5-min Rain = 0
KOD1 112231Z 35007KT 05/M12 A3021 RMK A01 T00471122  RH  028%=      5-min Rain = 0
KOD1 112232Z 35005KT 05/M12 A3021 RMK A01 T00481123  RH  028%=      5-min Rain = 0
KOD1 112233Z 00007KT 05/M12 A3021 RMK A01 T00471123  RH  028%=      5-min Rain = 0
KOD1 112234Z 36006KT 05/M12 A3021 RMK A01 T00471123  RH  028%=      5-min Rain = 0
KOD1 112235Z 34006KT 05/M12 A3021 RMK A01 T00471123  RH  028%=      5-min Rain = 0
KOD1 112236Z 35005KT 05/M12 A3021 RMK A01 T00481122  RH  028%=      5-min Rain = 0
KOD1 112237Z 01002KT 05/M12 A3021 RMK A01 T00491123  RH  028%=      5-min Rain = 0
KOD1 112238Z 34003KT 05/M12 A3021 RMK A01 T00491123  RH  028%=      5-min Rain = 0
KOD1 112239Z 35006KT 05/M12 A3021 RMK A01 T00501123  RH  028%=      5-min Rain = 0
KOD1 112240Z 36006KT 05/M12 A3021 RMK A01 T00511123  RH  027%=      5-min Rain = 0
KOD1 112241Z 01005KT 05/M12 A3021 RMK A01 T00521124  RH  027%=      5-min Rain = 0
KOD1 112242Z 03005KT 05/M12 A3021 RMK A01 T00521124  RH  027%=      5-min Rain = 0
KOD1 112243Z 04004KT 05/M12 A3021 RMK A01 T00521123  RH  027%=      5-min Rain = 0
KOD1 112244Z 05005KT 05/M12 A3021 RMK A01 T00521123  RH  027%=      5-min Rain = 0
KOD1 112245Z 04005KT 05/M12 A3021 RMK A01 T00531124  RH  027%=      5-min Rain = 0
KOD1 112246Z 03004KT 05/M12 A3021 RMK A01 T00521124  RH  027%=      5-min Rain = 0
KOD1 112247Z 02007KT 05/M13 A3021 RMK A01 T00521125  RH  027%=      5-min Rain = 0
KOD1 112248Z 03007KT 05/M13 A3021 RMK A01 T00511125  RH  027%=      5-min Rain = 0
KOD1 112249Z 02005KT 05/M13 A3021 RMK A01 T00501125  RH  027%=      5-min Rain = 0
KOD1 112250Z 03005KT 05/M13 A3021 RMK A01 T00491125  RH  027%=      5-min Rain = 0
KOD1 112251Z 03003KT 05/M13 A3021 RMK A01 T00491125  RH  027%=      5-min Rain = 0
KOD1 112252Z 03003KT 05/M13 A3021 RMK A01 T00481125  RH  027%=      5-min Rain = 0
KOD1 112253Z 06004KT 05/M13 A3021 RMK A01 T00481125  RH  027%=      5-min Rain = 0
KOD1 112254Z 05006KT 05/M13 A3021 RMK A01 T00491126  RH  027%=      5-min Rain = 0
KOD1 112255Z 04006KT 05/M13 A3021 RMK A01 T00491126  RH  027%=      5-min Rain = 0
KOD1 112256Z 04008KT 05/M13 A3021 RMK A01 T00491126  RH  027%=      5-min Rain = 0
KOD1 112257Z 04006KT 05/M13 A3021 RMK A01 T00491127  RH  027%=      5-min Rain = 0
KOD1 112258Z 05007KT 05/M13 A3021 RMK A01 T00491126  RH  027%=      5-min Rain = 0
KOD1 112259Z 05006KT 05/M13 A3021 RMK A01 T00481127  RH  027%=      5-min Rain = 0
KOD1 112300Z 06006KT 05/M13 A3021 RMK A01 T00471127  RH  027%=      5-min Rain = 0
KOD1 112301Z 06006KT 05/M13 A3021 RMK A01 T00461128  RH  027%=      5-min Rain = 0
KOD1 112302Z 07006KT 05/M13 A3021 RMK A01 T00461127  RH  027%=      5-min Rain = 0
KOD1 112303Z 05005KT 05/M13 A3021 RMK A01 T00451127  RH  027%=      5-min Rain = 0
KOD1 112304Z 05005KT 05/M13 A3021 RMK A01 T00461127  RH  027%=      5-min Rain = 0
KOD1 112305Z 06004KT 05/M13 A3021 RMK A01 T00461127  RH  027%=      5-min Rain = 0
KOD1 112306Z 04006KT 05/M13 A3021 RMK A01 T00451127  RH  027%=      5-min Rain = 0
KOD1 112307Z 05006KT 05/M13 A3022 RMK A01 T00461127  RH  027%=      5-min Rain = 0
KOD1 112308Z 04005KT 05/M13 A3022 RMK A01 T00461127  RH  027%=      5-min Rain = 0
KOD1 112309Z 05003KT 05/M13 A3022 RMK A01 T00461127  RH  027%=      5-min Rain = 0
KOD1 112310Z 06005KT 05/M13 A3022 RMK A01 T00461126  RH  027%=      5-min Rain = 0
KOD1 112311Z 05007KT 05/M13 A3022 RMK A01 T00461127  RH  027%=      5-min Rain = 0
KOD1 112312Z 04006KT 05/M13 A3022 RMK A01 T00461127  RH  027%=      5-min Rain = 0
KOD1 112313Z 04003KT 05/M13 A3022 RMK A01 T00461127  RH  027%=      5-min Rain = 0
KOD1 112314Z 04004KT 05/M13 A3022 RMK A01 T00451127  RH  027%=      5-min Rain = 0
KOD1 112315Z 03007KT 05/M13 A3022 RMK A01 T00451127  RH  027%=      5-min Rain = 0
KOD1 112316Z 04006KT 05/M13 A3022 RMK A01 T00451127  RH  027%=      5-min Rain = 0
KOD1 112317Z 03006KT 05/M13 A3022 RMK A01 T00451127  RH  027%=      5-min Rain = 0
KOD1 112318Z 03005KT 05/M13 A3022 RMK A01 T00451127  RH  027%=      5-min Rain = 0
KOD1 112319Z 04006KT 05/M13 A3022 RMK A01 T00461127  RH  027%=      5-min Rain = 0
KOD1 112320Z 04006KT 05/M13 A3022 RMK A01 T00461127  RH  027%=      5-min Rain = 0
KOD1 112321Z 05006KT 05/M13 A3022 RMK A01 T00451128  RH  027%=      5-min Rain = 0
KOD1 112322Z 05007KT 05/M13 A3022 RMK A01 T00451128  RH  027%=      5-min Rain = 0
KOD1 112323Z 04007KT 04/M13 A3022 RMK A01 T00441128  RH  027%=      5-min Rain = 0
KOD1 112324Z 04007KT 04/M13 A3022 RMK A01 T00441128  RH  028%=      5-min Rain = 0
KOD1 112325Z 02006KT 04/M13 A3022 RMK A01 T00441127  RH  028%=      5-min Rain = 0
KOD1 112326Z 05005KT 04/M13 A3022 RMK A01 T00431127  RH  028%=      5-min Rain = 0
KOD1 112327Z 06004KT 04/M13 A3022 RMK A01 T00431128  RH  028%=      5-min Rain = 0
KOD1 112328Z 06003KT 04/M13 A3022 RMK A01 T00421128  RH  028%=      5-min Rain = 0
KOD1 112329Z 05005KT 04/M13 A3022 RMK A01 T00431128  RH  028%=      5-min Rain = 0
KOD1 112330Z 04006KT 04/M13 A3022 RMK A01 T00431127  RH  028%=      5-min Rain = 0
KOD1 112331Z 03005KT 04/M13 A3022 RMK A01 T00431127  RH  028%=      5-min Rain = 0
KOD1 112332Z 03005KT 04/M13 A3022 RMK A01 T00431127  RH  028%=      5-min Rain = 0
KOD1 112333Z 03005KT 04/M13 A3023 RMK A01 T00421127  RH  028%=      5-min Rain = 0
KOD1 112334Z 03005KT 04/M13 A3023 RMK A01 T00421127  RH  028%=      5-min Rain = 0
KOD1 112335Z 03004KT 04/M13 A3023 RMK A01 T00421128  RH  028%=      5-min Rain = 0
KOD1 112336Z 04004KT 04/M13 A3023 RMK A01 T00421128  RH  028%=      5-min Rain = 0
KOD1 112337Z 03003KT 04/M13 A3023 RMK A01 T00421128  RH  028%=      5-min Rain = 0
KOD1 112338Z 04003KT 04/M13 A3023 RMK A01 T00421128  RH  028%=      5-min Rain = 0
KOD1 112339Z 04003KT 04/M13 A3023 RMK A01 T00421128  RH  028%=      5-min Rain = 0
KOD1 112340Z 04003KT 04/M13 A3023 RMK A01 T00431128  RH  028%=      5-min Rain = 0
KOD1 112341Z 03003KT 04/M13 A3023 RMK A01 T00421129  RH  028%=      5-min Rain = 0
KOD1 112342Z 03003KT 04/M13 A3023 RMK A01 T00421129  RH  028%=      5-min Rain = 0
KOD1 112343Z 04004KT 04/M13 A3023 RMK A01 T00421129  RH  028%=      5-min Rain = 0
KOD1 112344Z 04003KT 04/M13 A3023 RMK A01 T00411129  RH  028%=      5-min Rain = 0
KOD1 112345Z 05003KT 04/M13 A3023 RMK A01 T00411129  RH  028%=      5-min Rain = 0
KOD1 112346Z 05003KT 04/M13 A3023 RMK A01 T00401129  RH  028%=      5-min Rain = 0
KOD1 112347Z 05004KT 04/M13 A3023 RMK A01 T00401129  RH  028%=      5-min Rain = 0
KOD1 112348Z 05003KT 04/M13 A3023 RMK A01 T00391130  RH  028%=      5-min Rain = 0
KOD1 112349Z 05004KT 04/M13 A3023 RMK A01 T00391130  RH  028%=      5-min Rain = 0
KOD1 112350Z 05004KT 04/M13 A3023 RMK A01 T00381131  RH  028%=      5-min Rain = 0
KOD1 112351Z 05004KT 04/M13 A3023 RMK A01 T00371131  RH  028%=      5-min Rain = 0
KOD1 112352Z 06004KT 04/M13 A3023 RMK A01 T00361131  RH  028%=      5-min Rain = 0
KOD1 112353Z 07004KT 04/M13 A3023 RMK A01 T00351131  RH  028%=      5-min Rain = 0
KOD1 112354Z 07003KT 04/M13 A3023 RMK A01 T00351131  RH  029%=      5-min Rain = 0
KOD1 112355Z 07003KT 03/M13 A3023 RMK A01 T00341131  RH  029%=      5-min Rain = 0
KOD1 112356Z 07003KT 03/M13 A3023 RMK A01 T00341131  RH  029%=      5-min Rain = 0
KOD1 112357Z 06002KT 03/M13 A3023 RMK A01 T00341131  RH  029%=      5-min Rain = 0
KOD1 112358Z 07002KT 03/M13 A3023 RMK A01 T00341131  RH  029%=      5-min Rain = 0
KOD1 112359Z 07002KT 03/M13 A3023 RMK A01 T00331132  RH  029%=      5-min Rain = 0
KOD1 120000Z 07003KT 03/M13 A3023 RMK A01 T00331132  RH  029%=      5-min Rain = 0
KOD1 120001Z 07003KT 03/M13 A3023 RMK A01 T00321132  RH  029%=      5-min Rain = 0
KOD1 120002Z 08003KT 03/M13 A3023 RMK A01 T00321132  RH  029%=      5-min Rain = 0
KOD1 120003Z 07003KT 03/M13 A3023 RMK A01 T00311132  RH  029%=      5-min Rain = 0
KOD1 120004Z 07002KT 03/M13 A3023 RMK A01 T00311132  RH  029%=      5-min Rain = 0
KOD1 120005Z 06002KT 03/M13 A3023 RMK A01 T00301132  RH  029%=      5-min Rain = 0
KOD1 120006Z 06003KT 03/M13 A3023 RMK A01 T00301131  RH  030%=      5-min Rain = 0
KOD1 120007Z 06003KT 03/M13 A3024 RMK A01 T00291132  RH  029%=      5-min Rain = 0
KOD1 120008Z 07003KT 03/M13 A3024 RMK A01 T00281132  RH  030%=      5-min Rain = 0
KOD1 120009Z 07003KT 03/M13 A3024 RMK A01 T00271133  RH  030%=      5-min Rain = 0
KOD1 120010Z 08003KT 03/M13 A3024 RMK A01 T00261133  RH  030%=      5-min Rain = 0
KOD1 120011Z 08003KT 03/M13 A3024 RMK A01 T00251134  RH  030%=      5-min Rain = 0
KOD1 120012Z 08003KT 02/M13 A3024 RMK A01 T00241134  RH  030%=      5-min Rain = 0
KOD1 120013Z 08003KT 02/M13 A3024 RMK A01 T00231132  RH  031%=      5-min Rain = 0
KOD1 120014Z 08003KT 02/M13 A3024 RMK A01 T00231131  RH  031%=      5-min Rain = 0
KOD1 120015Z 08003KT 02/M13 A3024 RMK A01 T00231131  RH  031%=      5-min Rain = 0
KOD1 120016Z 07003KT 02/M13 A3024 RMK A01 T00231131  RH  031%=      5-min Rain = 0
KOD1 120017Z 07003KT 02/M13 A3024 RMK A01 T00231131  RH  031%=      5-min Rain = 0
KOD1 120018Z 07003KT 02/M13 A3024 RMK A01 T00231131  RH  031%=      5-min Rain = 0
KOD1 120019Z 08003KT 02/M13 A3024 RMK A01 T00231130  RH  031%=      5-min Rain = 0
KOD1 120020Z 08003KT 02/M13 A3024 RMK A01 T00241130  RH  031%=      5-min Rain = 0
KOD1 120021Z 08003KT 02/M13 A3024 RMK A01 T00231131  RH  031%=      5-min Rain = 0
KOD1 120022Z 08003KT 02/M13 A3024 RMK A01 T00231131  RH  031%=      5-min Rain = 0
KOD1 120023Z 08003KT 02/M13 A3024 RMK A01 T00221132  RH  031%=      5-min Rain = 0
KOD1 120024Z 08003KT 02/M13 A3024 RMK A01 T00211132  RH  031%=      5-min Rain = 0
KOD1 120025Z 09003KT 02/M13 A3024 RMK A01 T00201133  RH  031%=      5-min Rain = 0
KOD1 120026Z 08003KT 02/M13 A3024 RMK A01 T00191133  RH  032%=      5-min Rain = 0
KOD1 120027Z 08003KT 02/M13 A3024 RMK A01 T00181133  RH  032%=      5-min Rain = 0
KOD1 120028Z 08003KT 02/M13 A3024 RMK A01 T00171133  RH  032%=      5-min Rain = 0
KOD1 120029Z 08003KT 02/M13 A3024 RMK A01 T00161134  RH  032%=      5-min Rain = 0
KOD1 120030Z 08003KT 02/M13 A3025 RMK A01 T00151134  RH  032%=      5-min Rain = 0
KOD1 120031Z 09003KT 01/M13 A3025 RMK A01 T00141134  RH  032%=      5-min Rain = 0
KOD1 120032Z 09003KT 01/M13 A3025 RMK A01 T00131134  RH  032%=      5-min Rain = 0
KOD1 120033Z 09003KT 01/M14 A3025 RMK A01 T00121135  RH  033%=      5-min Rain = 0
KOD1 120034Z 09003KT 01/M13 A3025 RMK A01 T00121134  RH  033%=      5-min Rain = 0
KOD1 120035Z 10003KT 01/M13 A3025 RMK A01 T00121134  RH  033%=      5-min Rain = 0
KOD1 120036Z 09003KT 01/M13 A3025 RMK A01 T00111134  RH  033%=      5-min Rain = 0
KOD1 120037Z 09003KT 01/M13 A3025 RMK A01 T00111134  RH  033%=      5-min Rain = 0
KOD1 120038Z 09004KT 01/M13 A3025 RMK A01 T00111134  RH  033%=      5-min Rain = 0
KOD1 120039Z 09004KT 01/M14 A3025 RMK A01 T00111135  RH  033%=      5-min Rain = 0
KOD1 120040Z 09004KT 01/M13 A3025 RMK A01 T00101134  RH  033%=      5-min Rain = 0
KOD1 120041Z 09004KT 01/M13 A3025 RMK A01 T00101134  RH  033%=      5-min Rain = 0
KOD1 120042Z 09004KT 01/M14 A3025 RMK A01 T00101135  RH  033%=      5-min Rain = 0
KOD1 120043Z 09004KT 01/M13 A3025 RMK A01 T00101134  RH  033%=      5-min Rain = 0
KOD1 120044Z 09004KT 01/M13 A3025 RMK A01 T00101133  RH  034%=      5-min Rain = 0
KOD1 120045Z 09004KT 01/M13 A3025 RMK A01 T00101134  RH  033%=      5-min Rain = 0
KOD1 120046Z 09004KT 01/M13 A3025 RMK A01 T00111133  RH  033%=      5-min Rain = 0
KOD1 120047Z 10004KT 01/M13 A3025 RMK A01 T00101134  RH  033%=      5-min Rain = 0
KOD1 120048Z 09004KT 01/M13 A3025 RMK A01 T00101134  RH  033%=      5-min Rain = 0
KOD1 120049Z 09004KT 01/M13 A3025 RMK A01 T00101134  RH  033%=      5-min Rain = 0
KOD1 120050Z 09004KT 01/M13 A3025 RMK A01 T00101133  RH  034%=      5-min Rain = 0
KOD1 120051Z 09004KT 01/M13 A3025 RMK A01 T00101134  RH  033%=      5-min Rain = 0
KOD1 120052Z 09005KT 01/M14 A3025 RMK A01 T00091135  RH  033%=      5-min Rain = 0
KOD1 120053Z 09005KT 01/M14 A3025 RMK A01 T00081136  RH  033%=      5-min Rain = 0
KOD1 120054Z 09005KT 01/M14 A3025 RMK A01 T00061136  RH  034%=      5-min Rain = 0
KOD1 120055Z 09005KT 01/M14 A3025 RMK A01 T00051136  RH  034%=      5-min Rain = 0
KOD1 120056Z 10005KT 00/M14 A3025 RMK A01 T00041136  RH  034%=      5-min Rain = 0
KOD1 120057Z 10005KT 00/M14 A3025 RMK A01 T00021136  RH  035%=      5-min Rain = 0
KOD1 120058Z 10005KT 00/M14 A3026 RMK A01 T00011135  RH  035%=      5-min Rain = 0
KOD1 120059Z 10004KT 00/M14 A3026 RMK A01 T00011135  RH  035%=      5-min Rain = 0
KOD1 120100Z 10004KT 00/13 A3026 RMK A01 T00000-134  RH  035%=      5-min Rain = 0
KOD1 120101Z 10004KT 00/13 A3026 RMK A01 T00000-134  RH  036%=      5-min Rain = 0
KOD1 120102Z 10004KT 00/13 A3025 RMK A01 T00-00-134  RH  036%=      5-min Rain = 0
KOD1 120103Z 10004KT 00/13 A3025 RMK A01 T00-00-133  RH  036%=      5-min Rain = 0
KOD1 120104Z 10005KT 00/13 A3025 RMK A01 T00000-133  RH  036%=      5-min Rain = 0
KOD1 120105Z 10005KT 00/M13 A3026 RMK A01 T00011132  RH  036%=      5-min Rain = 0
KOD1 120106Z 10005KT 00/M13 A3026 RMK A01 T00011133  RH  036%=      5-min Rain = 0
KOD1 120107Z 10005KT 00/M13 A3026 RMK A01 T00011133  RH  036%=      5-min Rain = 0
KOD1 120108Z 11005KT 00/14 A3026 RMK A01 T00000-135  RH  035%=      5-min Rain = 0
KOD1 120109Z 11005KT M00/M14 A3026 RMK A01 T10021137  RH  035%=      5-min Rain = 0
KOD1 120110Z 11005KT M00/M14 A3026 RMK A01 T10041137  RH  036%=      5-min Rain = 0
KOD1 120111Z 11006KT M01/M14 A3026 RMK A01 T10061137  RH  036%=      5-min Rain = 0
KOD1 120112Z 11006KT M01/M14 A3026 RMK A01 T10081137  RH  037%=      5-min Rain = 0
KOD1 120113Z 11006KT M01/M14 A3026 RMK A01 T10101136  RH  038%=      5-min Rain = 0
KOD1 120114Z 12006KT M01/M14 A3026 RMK A01 T10111136  RH  038%=      5-min Rain = 0
KOD1 120115Z 11006KT M01/M14 A3026 RMK A01 T10111135  RH  039%=      5-min Rain = 0
KOD1 120116Z 11006KT M01/M13 A3026 RMK A01 T10111133  RH  039%=      5-min Rain = 0
KOD1 120117Z 11005KT M01/M13 A3026 RMK A01 T10111133  RH  039%=      5-min Rain = 0
KOD1 120118Z 11005KT M01/M13 A3026 RMK A01 T10111133  RH  039%=      5-min Rain = 0
KOD1 120119Z 11005KT M01/M13 A3026 RMK A01 T10111132  RH  039%=      5-min Rain = 0
KOD1 120120Z 11005KT M01/M13 A3026 RMK A01 T10101132  RH  039%=      5-min Rain = 0
KOD1 120121Z 10005KT M01/M13 A3026 RMK A01 T10101132  RH  039%=      5-min Rain = 0
KOD1 120122Z 10005KT M01/M13 A3026 RMK A01 T10101132  RH  039%=      5-min Rain = 0
KOD1 120123Z 10005KT M01/M13 A3026 RMK A01 T10101133  RH  039%=      5-min Rain = 0
KOD1 120124Z 10005KT M01/M13 A3026 RMK A01 T10101132  RH  039%=      5-min Rain = 0
KOD1 120125Z 10005KT M01/M13 A3026 RMK A01 T10101132  RH  039%=      5-min Rain = 0
KOD1 120126Z 10005KT M01/M13 A3026 RMK A01 T10091132  RH  039%=      5-min Rain = 0
KOD1 120127Z 10006KT M01/M13 A3026 RMK A01 T10091132  RH  039%=      5-min Rain = 0
KOD1 120128Z 10006KT M01/M13 A3026 RMK A01 T10091133  RH  039%=      5-min Rain = 0
KOD1 120129Z 10006KT M01/M13 A3026 RMK A01 T10101134  RH  038%=      5-min Rain = 0
KOD1 120130Z 10006KT M01/M13 A3026 RMK A01 T10101134  RH  038%=      5-min Rain = 0
KOD1 120131Z 10006KT M01/M14 A3026 RMK A01 T10121135  RH  039%=      5-min Rain = 0
KOD1 120132Z 10006KT M01/M14 A3026 RMK A01 T10131135  RH  039%=      5-min Rain = 0
KOD1 120133Z 10006KT M01/M14 A3026 RMK A01 T10141135  RH  039%=      5-min Rain = 0
KOD1 120134Z 10006KT M02/M14 A3026 RMK A01 T10151135  RH  039%=      5-min Rain = 0
KOD1 120135Z 10006KT M02/M14 A3026 RMK A01 T10161135  RH  040%=      5-min Rain = 0
KOD1 120136Z 10006KT M02/M13 A3026 RMK A01 T10161134  RH  040%=      5-min Rain = 0
KOD1 120137Z 10006KT M02/M13 A3026 RMK A01 T10161133  RH  040%=      5-min Rain = 0
KOD1 120138Z 10006KT M02/M13 A3026 RMK A01 T10161133  RH  040%=      5-min Rain = 0
KOD1 120139Z 10006KT M02/M13 A3026 RMK A01 T10161133  RH  041%=      5-min Rain = 0
KOD1 120140Z 10005KT M02/M13 A3026 RMK A01 T10161133  RH  041%=      5-min Rain = 0
KOD1 120141Z 10005KT M02/M13 A3026 RMK A01 T10161132  RH  041%=      5-min Rain = 0
KOD1 120142Z 10005KT M02/M13 A3026 RMK A01 T10151132  RH  041%=      5-min Rain = 0
KOD1 120143Z 09005KT M02/M13 A3026 RMK A01 T10151132  RH  041%=      5-min Rain = 0
KOD1 120144Z 09005KT M02/M13 A3026 RMK A01 T10151132  RH  041%=      5-min Rain = 0
KOD1 120145Z 09005KT M01/M13 A3026 RMK A01 T10141132  RH  040%=      5-min Rain = 0
KOD1 120146Z 09006KT M01/M13 A3026 RMK A01 T10141132  RH  040%=      5-min Rain = 0
KOD1 120147Z 10006KT M01/M13 A3026 RMK A01 T10141132  RH  040%=      5-min Rain = 0
KOD1 120148Z 10006KT M01/M13 A3026 RMK A01 T10141132  RH  040%=      5-min Rain = 0
KOD1 120149Z 10005KT M01/M13 A3026 RMK A01 T10141132  RH  040%=      5-min Rain = 0
KOD1 120150Z 10006KT M02/M13 A3026 RMK A01 T10151132  RH  040%=      5-min Rain = 0
KOD1 120151Z 10005KT M02/M13 A3026 RMK A01 T10151132  RH  041%=      5-min Rain = 0
KOD1 120152Z 10005KT M02/M13 A3026 RMK A01 T10161132  RH  041%=      5-min Rain = 0
KOD1 120153Z 10004KT M02/M13 A3026 RMK A01 T10161131  RH  041%=      5-min Rain = 0
KOD1 120154Z 10004KT M02/M13 A3026 RMK A01 T10161130  RH  041%=      5-min Rain = 0
KOD1 120155Z 10004KT M02/M13 A3026 RMK A01 T10151130  RH  041%=      5-min Rain = 0
KOD1 120156Z 10004KT M02/M13 A3026 RMK A01 T10151130  RH  041%=      5-min Rain = 0
KOD1 120157Z 10005KT M02/M13 A3026 RMK A01 T10151131  RH  041%=      5-min Rain = 0
KOD1 120158Z 11005KT M02/M13 A3026 RMK A01 T10161132  RH  041%=      5-min Rain = 0
KOD1 120159Z 11005KT M02/M13 A3026 RMK A01 T10171132  RH  041%=      5-min Rain = 0
KOD1 120200Z 11006KT M02/M13 A3026 RMK A01 T10181133  RH  041%=      5-min Rain = 0
KOD1 120201Z 10006KT M02/M13 A3026 RMK A01 T10191133  RH  041%=      5-min Rain = 0
KOD1 120202Z 10006KT M02/M13 A3026 RMK A01 T10201134  RH  041%=      5-min Rain = 0
KOD1 120203Z 10005KT M02/M14 A3027 RMK A01 T10221135  RH  042%=      5-min Rain = 0
KOD1 120204Z 10006KT M02/M13 A3027 RMK A01 T10231134  RH  042%=      5-min Rain = 0
KOD1 120205Z 10006KT M02/M13 A3027 RMK A01 T10241134  RH  043%=      5-min Rain = 0
KOD1 120206Z 10005KT M02/M13 A3027 RMK A01 T10241133  RH  043%=      5-min Rain = 0
KOD1 120207Z 10005KT M03/M13 A3027 RMK A01 T10251133  RH  043%=      5-min Rain = 0
KOD1 120208Z 10005KT M03/M13 A3027 RMK A01 T10251132  RH  044%=      5-min Rain = 0
KOD1 120209Z 10005KT M03/M13 A3027 RMK A01 T10251131  RH  044%=      5-min Rain = 0
KOD1 120210Z 10005KT M02/M13 A3027 RMK A01 T10241130  RH  044%=      5-min Rain = 0
KOD1 120211Z 10006KT M02/M13 A3027 RMK A01 T10231131  RH  044%=      5-min Rain = 0
KOD1 120212Z 11006KT M02/M13 A3027 RMK A01 T10231131  RH  043%=      5-min Rain = 0
KOD1 120213Z 11006KT M02/M13 A3027 RMK A01 T10241133  RH  043%=      5-min Rain = 0
KOD1 120214Z 11006KT M03/M13 A3027 RMK A01 T10251134  RH  043%=      5-min Rain = 0
KOD1 120215Z 11006KT M03/M14 A3027 RMK A01 T10271136  RH  043%=      5-min Rain = 0
KOD1 120216Z 12006KT M03/M14 A3027 RMK A01 T10281135  RH  044%=      5-min Rain = 0
KOD1 120217Z 12007KT M03/M13 A3027 RMK A01 T10291134  RH  044%=      5-min Rain = 0
KOD1 120218Z 11007KT M03/M13 A3027 RMK A01 T10291132  RH  045%=      5-min Rain = 0
KOD1 120219Z 11007KT M03/M13 A3027 RMK A01 T10291133  RH  045%=      5-min Rain = 0
KOD1 120220Z 11007KT M03/M13 A3027 RMK A01 T10291132  RH  045%=      5-min Rain = 0
KOD1 120221Z 10006KT M03/M13 A3027 RMK A01 T10291131  RH  045%=      5-min Rain = 0
KOD1 120222Z 10006KT M03/M13 A3027 RMK A01 T10281132  RH  045%=      5-min Rain = 0
KOD1 120223Z 10006KT M03/M13 A3027 RMK A01 T10291132  RH  045%=      5-min Rain = 0
KOD1 120224Z 10006KT M03/M13 A3027 RMK A01 T10291133  RH  045%=      5-min Rain = 0
KOD1 120225Z 09006KT M03/M13 A3027 RMK A01 T10301132  RH  045%=      5-min Rain = 0
KOD1 120226Z 09006KT M03/M13 A3027 RMK A01 T10291131  RH  045%=      5-min Rain = 0
KOD1 120227Z 10007KT M03/M13 A3027 RMK A01 T10291131  RH  045%=      5-min Rain = 0
KOD1 120228Z 10007KT M03/M13 A3027 RMK A01 T10281130  RH  045%=      5-min Rain = 0
KOD1 120229Z 10007KT M03/M13 A3027 RMK A01 T10281129  RH  046%=      5-min Rain = 0
KOD1 120230Z 10007KT M03/M13 A3027 RMK A01 T10271129  RH  045%=      5-min Rain = 0
KOD1 120231Z 10007KT M03/M13 A3027 RMK A01 T10281130  RH  045%=      5-min Rain = 0
KOD1 120232Z 10007KT M03/M13 A3027 RMK A01 T10281130  RH  045%=      5-min Rain = 0
KOD1 120233Z 10007KT M03/M13 A3027 RMK A01 T10281129  RH  046%=      5-min Rain = 0
KOD1 120234Z 10006KT M03/M13 A3027 RMK A01 T10281129  RH  046%=      5-min Rain = 0
KOD1 120235Z 10006KT M03/M13 A3027 RMK A01 T10281129  RH  046%=      5-min Rain = 0
KOD1 120236Z 10006KT M03/M13 A3027 RMK A01 T10281128  RH  046%=      5-min Rain = 0
KOD1 120237Z 10006KT M03/M13 A3028 RMK A01 T10281129  RH  046%=      5-min Rain = 0
KOD1 120238Z 09006KT M03/M13 A3028 RMK A01 T10281129  RH  046%=      5-min Rain = 0
KOD1 120239Z 09006KT M03/M13 A3027 RMK A01 T10281130  RH  046%=      5-min Rain = 0
KOD1 120240Z 09006KT M03/M13 A3027 RMK A01 T10281129  RH  046%=      5-min Rain = 0
KOD1 120241Z 09006KT M03/M13 A3027 RMK A01 T10281129  RH  046%=      5-min Rain = 0
KOD1 120242Z 09006KT M03/M13 A3027 RMK A01 T10271128  RH  046%=      5-min Rain = 0
KOD1 120243Z 09006KT M03/M13 A3027 RMK A01 T10271128  RH  045%=      5-min Rain = 0
KOD1 120244Z 09006KT M03/M13 A3027 RMK A01 T10261129  RH  045%=      5-min Rain = 0
KOD1 120245Z 09006KT M03/M13 A3027 RMK A01 T10261129  RH  045%=      5-min Rain = 0
KOD1 120246Z 09007KT M03/M13 A3027 RMK A01 T10261128  RH  045%=      5-min Rain = 0
KOD1 120247Z 09007KT M03/M13 A3027 RMK A01 T10261128  RH  045%=      5-min Rain = 0
KOD1 120248Z 09007KT M03/M13 A3028 RMK A01 T10261128  RH  045%=      5-min Rain = 0
KOD1 120249Z 09007KT M03/M13 A3028 RMK A01 T10261128  RH  045%=      5-min Rain = 0
KOD1 120250Z 09007KT M03/M13 A3028 RMK A01 T10251128  RH  045%=      5-min Rain = 0
KOD1 120251Z 09007KT M03/M13 A3028 RMK A01 T10251128  RH  045%=      5-min Rain = 0
KOD1 120252Z 08006KT M03/M13 A3028 RMK A01 T10261129  RH  045%=      5-min Rain = 0
KOD1 120253Z 08006KT M03/M13 A3028 RMK A01 T10261129  RH  045%=      5-min Rain = 0
KOD1 120254Z 08006KT M03/M13 A3028 RMK A01 T10261130  RH  045%=      5-min Rain = 0
KOD1 120255Z 09006KT M03/M13 A3028 RMK A01 T10271129  RH  045%=      5-min Rain = 0
KOD1 120256Z 09006KT M03/M13 A3028 RMK A01 T10271129  RH  045%=      5-min Rain = 0
KOD1 120257Z 10006KT M03/M13 A3028 RMK A01 T10281129  RH  046%=      5-min Rain = 0
KOD1 120258Z 10006KT M03/M13 A3028 RMK A01 T10281129  RH  046%=      5-min Rain = 0
KOD1 120259Z 10007KT M03/M13 A3028 RMK A01 T10281129  RH  046%=      5-min Rain = 0
KOD1 120300Z 11007KT M03/M13 A3028 RMK A01 T10281129  RH  046%=      5-min Rain = 0
KOD1 120301Z 11006KT M03/M13 A3028 RMK A01 T10291129  RH  046%=      5-min Rain = 0
KOD1 120302Z 11007KT M03/M13 A3028 RMK A01 T10291129  RH  046%=      5-min Rain = 0
KOD1 120303Z 11006KT M03/M13 A3028 RMK A01 T10301130  RH  046%=      5-min Rain = 0
KOD1 120304Z 11006KT M03/M13 A3028 RMK A01 T10301130  RH  046%=      5-min Rain = 0
KOD1 120305Z 10006KT M03/M13 A3028 RMK A01 T10311130  RH  046%=      5-min Rain = 0
KOD1 120306Z 10006KT M03/M13 A3029 RMK A01 T10321131  RH  046%=      5-min Rain = 0
KOD1 120307Z 10006KT M03/M13 A3029 RMK A01 T10331131  RH  047%=      5-min Rain = 0
KOD1 120308Z 10006KT M03/M13 A3029 RMK A01 T10331131  RH  047%=      5-min Rain = 0
KOD1 120309Z 10006KT M03/M13 A3029 RMK A01 T10341131  RH  047%=      5-min Rain = 0
KOD1 120310Z 10006KT M03/M13 A3029 RMK A01 T10341131  RH  047%=      5-min Rain = 0
KOD1 120311Z 10006KT M04/M13 A3029 RMK A01 T10351131  RH  047%=      5-min Rain = 0
KOD1 120312Z 11006KT M04/M13 A3029 RMK A01 T10361131  RH  048%=      5-min Rain = 0
KOD1 120313Z 11006KT M04/M13 A3029 RMK A01 T10361132  RH  048%=      5-min Rain = 0
KOD1 120314Z 11006KT M04/M13 A3029 RMK A01 T10371131  RH  048%=      5-min Rain = 0
KOD1 120315Z 11006KT M04/M13 A3029 RMK A01 T10371131  RH  048%=      5-min Rain = 0
KOD1 120316Z 11006KT M04/M13 A3029 RMK A01 T10371130  RH  048%=      5-min Rain = 0
KOD1 120317Z 11007KT M04/M13 A3029 RMK A01 T10371130  RH  048%=      5-min Rain = 0
KOD1 120318Z 11007KT M04/M13 A3029 RMK A01 T10371131  RH  048%=      5-min Rain = 0
KOD1 120319Z 10007KT M04/M13 A3029 RMK A01 T10371131  RH  048%=      5-min Rain = 0
KOD1 120320Z 10007KT M04/M13 A3029 RMK A01 T10371131  RH  048%=      5-min Rain = 0
KOD1 120321Z 10006KT M04/M13 A3029 RMK A01 T10371131  RH  048%=      5-min Rain = 0
KOD1 120322Z 10006KT M04/M13 A303 RMK A01 T10371131  RH  048%=      5-min Rain = 0
KOD1 120323Z 10006KT M04/M13 A303 RMK A01 T10371130  RH  048%=      5-min Rain = 0
KOD1 120324Z 10006KT M04/M13 A303 RMK A01 T10371130  RH  048%=      5-min Rain = 0
KOD1 120325Z 11006KT M04/M13 A303 RMK A01 T10371130  RH  048%=      5-min Rain = 0
KOD1 120326Z 11006KT M04/M13 A303 RMK A01 T10361130  RH  048%=      5-min Rain = 0
KOD1 120327Z 11006KT M04/M13 A303 RMK A01 T10361130  RH  048%=      5-min Rain = 0
KOD1 120328Z 11006KT M04/M13 A303 RMK A01 T10361130  RH  048%=      5-min Rain = 0
KOD1 120329Z 11006KT M04/M13 A303 RMK A01 T10361131  RH  048%=      5-min Rain = 0
KOD1 120330Z 10007KT M04/M13 A303 RMK A01 T10371132  RH  048%=      5-min Rain = 0
KOD1 120331Z 10007KT M04/M13 A303 RMK A01 T10371132  RH  048%=      5-min Rain = 0
KOD1 120332Z 10007KT M04/M13 A3029 RMK A01 T10381132  RH  048%=      5-min Rain = 0
KOD1 120333Z 10006KT M04/M13 A303 RMK A01 T10381131  RH  049%=      5-min Rain = 0
KOD1 120334Z 10007KT M04/M13 A303 RMK A01 T10391131  RH  049%=      5-min Rain = 0
KOD1 120335Z 10007KT M04/M13 A303 RMK A01 T10391131  RH  049%=      5-min Rain = 0
KOD1 120336Z 10007KT M04/M13 A303 RMK A01 T10391131  RH  049%=      5-min Rain = 0
KOD1 120337Z 10007KT M04/M13 A303 RMK A01 T10391131  RH  049%=      5-min Rain = 0
KOD1 120338Z 10007KT M04/M13 A303 RMK A01 T10391131  RH  049%=      5-min Rain = 0
KOD1 120339Z 10007KT M04/M13 A303 RMK A01 T10391131  RH  049%=      5-min Rain = 0
KOD1 120340Z 10008KT M04/M13 A303 RMK A01 T10391130  RH  049%=      5-min Rain = 0
KOD1 120341Z 11008KT M04/M13 A303 RMK A01 T10381130  RH  049%=      5-min Rain = 0
KOD1 120342Z 11007KT M04/M13 A303 RMK A01 T10371128  RH  049%=      5-min Rain = 0
KOD1 120343Z 11008KT M04/M13 A303 RMK A01 T10361127  RH  049%=      5-min Rain = 0
KOD1 120344Z 10008KT M04/M13 A303 RMK A01 T10351127  RH  049%=      5-min Rain = 0
KOD1 120345Z 11008KT M03/M13 A303 RMK A01 T10341127  RH  048%=      5-min Rain = 0
KOD1 120346Z 10008KT M03/M13 A303 RMK A01 T10331127  RH  048%=      5-min Rain = 0
KOD1 120347Z 10008KT M03/M13 A303 RMK A01 T10321127  RH  048%=      5-min Rain = 0
KOD1 120348Z 10007KT M03/M13 A303 RMK A01 T10311127  RH  047%=      5-min Rain = 0
KOD1 120349Z 10007KT M03/M13 A303 RMK A01 T10311127  RH  047%=      5-min Rain = 0
KOD1 120350Z 10007KT M03/M13 A303 RMK A01 T10311128  RH  047%=      5-min Rain = 0
KOD1 120351Z 10007KT M03/M13 A303 RMK A01 T10311128  RH  047%=      5-min Rain = 0
KOD1 120352Z 10007KT M03/M13 A303 RMK A01 T10311128  RH  047%=      5-min Rain = 0
KOD1 120353Z 10007KT M03/M13 A303 RMK A01 T10311128  RH  047%=      5-min Rain = 0
KOD1 120354Z 11007KT M03/M13 A303 RMK A01 T10311128  RH  047%=      5-min Rain = 0
KOD1 120355Z 11007KT M03/M13 A303 RMK A01 T10311128  RH  047%=      5-min Rain = 0
KOD1 120356Z 11007KT M03/M13 A303 RMK A01 T10311127  RH  047%=      5-min Rain = 0
KOD1 120357Z 11007KT M03/M13 A3031 RMK A01 T10311128  RH  047%=      5-min Rain = 0
KOD1 120358Z 11007KT M03/M13 A3031 RMK A01 T10321128  RH  047%=      5-min Rain = 0
KOD1 120359Z 11007KT M03/M13 A3031 RMK A01 T10321129  RH  047%=      5-min Rain = 0
KOD1 120400Z 11007KT M03/M13 A303 RMK A01 T10331129  RH  048%=      5-min Rain = 0
KOD1 120401Z 11007KT M03/M13 A303 RMK A01 T10331128  RH  048%=      5-min Rain = 0
KOD1 120402Z 11007KT M03/M13 A303 RMK A01 T10341128  RH  048%=      5-min Rain = 0
KOD1 120403Z 11007KT M03/M13 A3031 RMK A01 T10341128  RH  048%=      5-min Rain = 0
KOD1 120404Z 11007KT M03/M13 A3031 RMK A01 T10341128  RH  048%=      5-min Rain = 0
KOD1 120405Z 11008KT M03/M13 A3031 RMK A01 T10341129  RH  048%=      5-min Rain = 0
KOD1 120406Z 10007KT M04/M13 A3031 RMK A01 T10351128  RH  048%=      5-min Rain = 0
KOD1 120407Z 10007KT M04/M13 A3031 RMK A01 T10351128  RH  049%=      5-min Rain = 0
KOD1 120408Z 10007KT M04/M13 A3031 RMK A01 T10351128  RH  049%=      5-min Rain = 0
KOD1 120409Z 10007KT M04/M13 A3031 RMK A01 T10351128  RH  048%=      5-min Rain = 0
KOD1 120410Z 10007KT M04/M13 A3031 RMK A01 T10351128  RH  049%=      5-min Rain = 0
KOD1 120411Z 10007KT M04/M13 A3031 RMK A01 T10351128  RH  049%=      5-min Rain = 0
KOD1 120412Z 11007KT M04/M13 A3031 RMK A01 T10361128  RH  049%=      5-min Rain = 0
KOD1 120413Z 11007KT M04/M13 A3031 RMK A01 T10361128  RH  049%=      5-min Rain = 0
KOD1 120414Z 11006KT M04/M13 A3031 RMK A01 T10371128  RH  049%=      5-min Rain = 0
KOD1 120415Z 11006KT M04/M13 A3031 RMK A01 T10371128  RH  049%=      5-min Rain = 0
KOD1 120416Z 11006KT M04/M13 A3031 RMK A01 T10371128  RH  049%=      5-min Rain = 0
KOD1 120417Z 11007KT M04/M13 A3031 RMK A01 T10381129  RH  049%=      5-min Rain = 0
KOD1 120418Z 11007KT M04/M13 A3031 RMK A01 T10391129  RH  049%=      5-min Rain = 0
KOD1 120419Z 10007KT M04/M13 A3032 RMK A01 T10391129  RH  050%=      5-min Rain = 0
KOD1 120420Z 10007KT M04/M13 A3032 RMK A01 T10401130  RH  050%=      5-min Rain = 0
KOD1 120421Z 10007KT M04/M13 A3032 RMK A01 T10411130  RH  050%=      5-min Rain = 0
KOD1 120422Z 10007KT M04/M13 A3032 RMK A01 T10421130  RH  050%=      5-min Rain = 0
KOD1 120423Z 10007KT M04/M13 A3032 RMK A01 T10421129  RH  051%=      5-min Rain = 0
KOD1 120424Z 10006KT M04/M13 A3032 RMK A01 T10421129  RH  051%=      5-min Rain = 0
KOD1 120425Z 11006KT M04/M13 A3032 RMK A01 T10421129  RH  051%=      5-min Rain = 0
KOD1 120426Z 11006KT M04/M13 A3032 RMK A01 T10421127  RH  051%=      5-min Rain = 0
KOD1 120427Z 11007KT M04/M13 A3032 RMK A01 T10411127  RH  051%=      5-min Rain = 0
KOD1 120428Z 11007KT M04/M13 A3032 RMK A01 T10411128  RH  051%=      5-min Rain = 0
KOD1 120429Z 11007KT M04/M13 A3032 RMK A01 T10411128  RH  051%=      5-min Rain = 0
KOD1 120430Z 11007KT M04/M13 A3032 RMK A01 T10411128  RH  051%=      5-min Rain = 0
KOD1 120431Z 11007KT M04/M13 A3032 RMK A01 T10411129  RH  051%=      5-min Rain = 0
KOD1 120432Z 11007KT M04/M13 A3032 RMK A01 T10421129  RH  051%=      5-min Rain = 0
KOD1 120433Z 11007KT M04/M13 A3032 RMK A01 T10421128  RH  051%=      5-min Rain = 0
KOD1 120434Z 11007KT M04/M13 A3032 RMK A01 T10431128  RH  052%=      5-min Rain = 0
KOD1 120435Z 11007KT M04/M13 A3032 RMK A01 T10421127  RH  052%=      5-min Rain = 0
KOD1 120436Z 11007KT M04/M13 A3032 RMK A01 T10421127  RH  052%=      5-min Rain = 0
KOD1 120437Z 11007KT M04/M13 A3032 RMK A01 T10421127  RH  052%=      5-min Rain = 0
KOD1 120438Z 11007KT M04/M13 A3032 RMK A01 T10421127  RH  052%=      5-min Rain = 0
KOD1 120439Z 11007KT M04/M13 A3032 RMK A01 T10421127  RH  052%=      5-min Rain = 0
KOD1 120440Z 11007KT M04/M13 A3031 RMK A01 T10421127  RH  051%=      5-min Rain = 0
KOD1 120441Z 10007KT M04/M13 A3031 RMK A01 T10421128  RH  051%=      5-min Rain = 0
KOD1 120442Z 10007KT M04/M13 A3031 RMK A01 T10431128  RH  052%=      5-min Rain = 0
KOD1 120443Z 10007KT M04/M13 A3031 RMK A01 T10431127  RH  052%=      5-min Rain = 0
KOD1 120444Z 10006KT M04/M13 A3031 RMK A01 T10431127  RH  052%=      5-min Rain = 0
KOD1 120445Z 10006KT M04/M13 A3031 RMK A01 T10431127  RH  052%=      5-min Rain = 0
KOD1 120446Z 11006KT M04/M13 A3031 RMK A01 T10431127  RH  052%=      5-min Rain = 0
KOD1 120447Z 11007KT M04/M13 A3032 RMK A01 T10431127  RH  052%=      5-min Rain = 0
KOD1 120448Z 11007KT M04/M13 A3032 RMK A01 T10431127  RH  052%=      5-min Rain = 0
KOD1 120449Z 11007KT M04/M13 A3032 RMK A01 T10441128  RH  052%=      5-min Rain = 0
KOD1 120450Z 11007KT M04/M13 A3032 RMK A01 T10441127  RH  052%=      5-min Rain = 0
KOD1 120451Z 12007KT M04/M13 A3032 RMK A01 T10441126  RH  052%=      5-min Rain = 0
KOD1 120452Z 11007KT M04/M13 A3032 RMK A01 T10431126  RH  052%=      5-min Rain = 0
KOD1 120453Z 11007KT M04/M13 A3032 RMK A01 T10421126  RH  052%=      5-min Rain = 0
KOD1 120454Z 11007KT M04/M13 A3032 RMK A01 T10421126  RH  052%=      5-min Rain = 0
KOD1 120455Z 11007KT M04/M13 A3032 RMK A01 T10421126  RH  052%=      5-min Rain = 0
KOD1 120456Z 11007KT M04/M13 A3032 RMK A01 T10421126  RH  052%=      5-min Rain = 0
KOD1 120457Z 11007KT M04/M13 A3032 RMK A01 T10411125  RH  052%=      5-min Rain = 0
KOD1 120458Z 11007KT M04/M13 A3032 RMK A01 T10411125  RH  052%=      5-min Rain = 0
KOD1 120459Z 11007KT M04/M13 A3032 RMK A01 T10411125  RH  052%=      5-min Rain = 0
KOD1 120500Z 11007KT M04/M13 A3032 RMK A01 T10411125  RH  052%=      5-min Rain = 0
KOD1 120501Z 11007KT M04/M13 A3032 RMK A01 T10411125  RH  052%=      5-min Rain = 0
KOD1 120502Z 11007KT M04/M13 A3031 RMK A01 T10411126  RH  052%=      5-min Rain = 0
KOD1 120503Z 11007KT M04/M13 A3031 RMK A01 T10411126  RH  052%=      5-min Rain = 0
KOD1 120504Z 10007KT M04/M13 A3031 RMK A01 T10421126  RH  052%=      5-min Rain = 0
KOD1 120505Z 10007KT M04/M13 A3031 RMK A01 T10431127  RH  052%=      5-min Rain = 0
KOD1 120506Z 10007KT M04/M13 A3031 RMK A01 T10431127  RH  052%=      5-min Rain = 0
KOD1 120507Z 10007KT M04/M13 A3031 RMK A01 T10441126  RH  052%=      5-min Rain = 0
KOD1 120508Z 10007KT M04/M13 A3031 RMK A01 T10441127  RH  052%=      5-min Rain = 0
KOD1 120509Z 10008KT M04/M13 A3031 RMK A01 T10441126  RH  053%=      5-min Rain = 0
KOD1 120510Z 10007KT M04/M13 A3031 RMK A01 T10441126  RH  053%=      5-min Rain = 0
KOD1 120511Z 10007KT M04/M13 A3031 RMK A01 T10441125  RH  053%=      5-min Rain = 0
KOD1 120512Z 10007KT M04/M13 A3031 RMK A01 T10431125  RH  053%=      5-min Rain = 0
KOD1 120513Z 10007KT M04/M13 A3031 RMK A01 T10431125  RH  053%=      5-min Rain = 0
KOD1 120514Z 09007KT M04/M13 A3031 RMK A01 T10431125  RH  053%=      5-min Rain = 0
KOD1 120515Z 09007KT M04/M13 A3031 RMK A01 T10431125  RH  053%=      5-min Rain = 0
KOD1 120516Z 09007KT M04/M13 A3031 RMK A01 T10441126  RH  053%=      5-min Rain = 0
KOD1 120517Z 09007KT M04/M13 A3031 RMK A01 T10441126  RH  053%=      5-min Rain = 0
KOD1 120518Z 09007KT M04/M13 A3031 RMK A01 T10441127  RH  053%=      5-min Rain = 0
KOD1 120519Z 09007KT M04/M13 A3031 RMK A01 T10441127  RH  053%=      5-min Rain = 0
KOD1 120520Z 09007KT M05/M13 A3031 RMK A01 T10451127  RH  053%=      5-min Rain = 0
KOD1 120521Z 09007KT M05/M13 A3031 RMK A01 T10451127  RH  053%=      5-min Rain = 0
KOD1 120522Z 09007KT M05/M13 A3031 RMK A01 T10461127  RH  053%=      5-min Rain = 0
KOD1 120523Z 09007KT M05/M13 A3031 RMK A01 T10461127  RH  053%=      5-min Rain = 0
KOD1 120524Z 09007KT M05/M13 A3031 RMK A01 T10461126  RH  053%=      5-min Rain = 0
KOD1 120525Z 09007KT M05/M13 A3031 RMK A01 T10461126  RH  053%=      5-min Rain = 0
KOD1 120526Z 09007KT M05/M13 A3031 RMK A01 T10461126  RH  054%=      5-min Rain = 0
KOD1 120527Z 09007KT M05/M13 A3031 RMK A01 T10451126  RH  053%=      5-min Rain = 0
KOD1 120528Z 09008KT M05/M13 A3031 RMK A01 T10451126  RH  053%=      5-min Rain = 0
KOD1 120529Z 09008KT M05/M13 A3031 RMK A01 T10451126  RH  053%=      5-min Rain = 0
KOD1 120530Z 09008KT M04/M13 A3031 RMK A01 T10441126  RH  053%=      5-min Rain = 0
KOD1 120531Z 09008KT M04/M13 A3031 RMK A01 T10441126  RH  053%=      5-min Rain = 0
KOD1 120532Z 08008KT M04/M13 A3031 RMK A01 T10441126  RH  053%=      5-min Rain = 0
KOD1 120533Z 08007KT M04/M13 A3031 RMK A01 T10441126  RH  053%=      5-min Rain = 0
KOD1 120534Z 08007KT M04/M13 A3031 RMK A01 T10441126  RH  053%=      5-min Rain = 0
KOD1 120535Z 08008KT M04/M13 A3031 RMK A01 T10431126  RH  053%=      5-min Rain = 0
KOD1 120536Z 08008KT M04/M13 A3031 RMK A01 T10431126  RH  052%=      5-min Rain = 0
KOD1 120537Z 08008KT M04/M13 A3031 RMK A01 T10421125  RH  053%=      5-min Rain = 0
KOD1 120538Z 08008KT M04/M12 A3031 RMK A01 T10411124  RH  053%=      5-min Rain = 0
KOD1 120539Z 08008KT M04/M12 A3031 RMK A01 T10411124  RH  052%=      5-min Rain = 0
KOD1 120540Z 08008KT M04/M12 A3031 RMK A01 T10411124  RH  052%=      5-min Rain = 0
KOD1 120541Z 08008KT M04/M13 A3031 RMK A01 T10411125  RH  052%=      5-min Rain = 0
KOD1 120542Z 08008KT M04/M13 A3031 RMK A01 T10411125  RH  052%=      5-min Rain = 0
KOD1 120543Z 08008KT M04/M13 A3031 RMK A01 T10411125  RH  052%=      5-min Rain = 0
KOD1 120544Z 09008KT M04/M13 A3032 RMK A01 T10421125  RH  052%=      5-min Rain = 0
KOD1 120545Z 09008KT M04/M13 A3032 RMK A01 T10421125  RH  052%=      5-min Rain = 0
KOD1 120546Z 09008KT M04/M13 A3032 RMK A01 T10421125  RH  052%=      5-min Rain = 0
KOD1 120547Z 09008KT M04/M13 A3032 RMK A01 T10421125  RH  053%=      5-min Rain = 0
KOD1 120548Z 09008KT M04/M13 A3032 RMK A01 T10421125  RH  053%=      5-min Rain = 0
KOD1 120549Z 09007KT M04/M13 A3032 RMK A01 T10421125  RH  053%=      5-min Rain = 0
KOD1 120550Z 09007KT M04/M13 A3032 RMK A01 T10431125  RH  053%=      5-min Rain = 0
KOD1 120551Z 09007KT M04/M13 A3032 RMK A01 T10431125  RH  053%=      5-min Rain = 0
KOD1 120552Z 09007KT M04/M13 A3032 RMK A01 T10441125  RH  053%=      5-min Rain = 0
KOD1 120553Z 09007KT M04/M12 A3032 RMK A01 T10441124  RH  053%=      5-min Rain = 0
KOD1 120554Z 09007KT M04/M13 A3032 RMK A01 T10441125  RH  053%=      5-min Rain = 0
KOD1 120555Z 10007KT M04/M13 A3032 RMK A01 T10441125  RH  053%=      5-min Rain = 0
KOD1 120556Z 10007KT M04/M13 A3032 RMK A01 T10441125  RH  053%=      5-min Rain = 0
KOD1 120557Z 10007KT M04/M13 A3033 RMK A01 T10441125  RH  053%=      5-min Rain = 0
KOD1 120558Z 10007KT M04/M12 A3033 RMK A01 T10441124  RH  053%=      5-min Rain = 0
KOD1 120559Z 10006KT M04/M12 A3033 RMK A01 T10441124  RH  053%=      5-min Rain = 0

Page generated in 0.1554 seconds.